GFSGL_850_thetae_000.txt.gz
Theta_e
325 327 327 327 327 324 324 324 322 319 320 319 318 321 320 321 323 323 323 327 326 325 327 328 327 328 328 325 325 328 329 329 329 329 329 328 327 326 326 327 325 325 325
324 326 327 327 326 325 324 324 323 321 319 318 319 318 318 322 323 325 326 326 327 328 328 328 328 328 328 326 326 329 328 328 329 329 328 327 327 326 324 322 323 322 317
323 326 326 327 325 325 324 324 322 322 321 321 322 322 322 323 324 322 325 326 327 327 328 328 328 328 328 327 327 327 328 328 328 328 329 328 327 325 324 323 319 313 310
323 326 326 324 325 324 324 323 323 322 322 323 323 322 322 323 322 324 324 324 324 326 331 329 328 329 329 328 328 328 328 329 327 327 327 327 326 324 323 324 322 316 311
322 326 326 325 324 325 323 322 322 322 322 322 322 322 322 323 323 323 324 324 323 325 328 328 327 328 328 327 327 327 327 327 327 326 326 326 325 324 324 324 321 310 312
321 324 325 326 324 324 323 324 322 321 322 323 323 323 322 322 323 323 323 322 322 323 328 327 327 327 327 326 326 326 327 326 326 326 326 325 325 325 325 320 312 310 316
319 322 324 326 325 325 325 326 326 325 323 324 325 326 326 325 324 323 324 325 325 328 329 327 327 326 325 326 326 326 325 324 325 324 325 325 326 325 320 310 310 315 319
318 321 322 325 326 325 325 324 323 325 325 324 325 326 326 325 325 324 326 326 326 327 328 327 327 326 325 324 325 324 324 324 324 324 323 321 319 315 313 317 321 322 323
318 319 321 324 326 326 325 325 324 322 324 324 325 325 326 326 325 325 325 326 327 327 327 328 327 327 326 324 326 327 326 324 322 321 321 321 321 321 321 321 322 323 324
318 317 318 324 325 325 323 326 325 323 320 321 324 325 327 326 326 325 325 326 326 325 326 326 325 324 325 326 324 324 325 324 325 324 325 327 325 323 324 324 323 319 318
319 316 317 322 326 324 323 322 324 322 318 319 325 325 326 326 326 326 326 326 326 326 324 324 325 326 324 322 322 324 324 323 324 323 324 324 316 315 316 316 317 316 317
321 317 316 319 327 324 326 323 323 324 322 316 320 323 325 325 325 326 326 326 326 326 325 324 324 324 324 321 323 321 320 319 320 317 316 315 316 318 319 319 319 319 320
322 318 316 317 321 327 327 326 325 325 325 319 315 318 318 323 324 326 326 325 324 325 325 325 325 324 323 322 320 320 318 318 317 319 315 316 318 319 320 321 321 321 321
322 320 317 317 320 325 328 328 327 326 326 324 318 316 318 319 319 318 319 319 318 317 318 322 317 318 317 318 318 317 316 317 315 315 315 314 314 316 320 322 322 321 321
321 322 318 317 317 319 323 325 327 326 325 324 321 317 316 318 318 320 320 318 318 319 318 317 317 317 313 313 315 315 315 316 315 317 318 317 315 318 322 322 321 321 314
320 322 320 318 318 317 319 322 325 324 324 323 323 319 318 316 316 318 320 321 321 321 320 319 319 316 313 313 314 315 315 315 317 319 317 312 313 318 321 320 318 314 309
320 321 322 318 319 318 317 319 321 323 323 323 324 322 321 319 322 322 317 320 321 320 319 319 317 315 315 313 314 314 314 316 317 317 314 311 315 319 319 319 314 309 303
322 320 321 320 319 319 319 317 317 319 321 321 321 322 320 320 323 324 324 321 317 314 316 316 316 313 312 313 312 312 314 317 317 317 315 311 315 318 318 315 311 305 301
324 322 320 322 319 319 319 319 317 317 318 319 319 320 319 317 321 322 321 322 318 315 312 313 315 314 314 313 313 313 313 315 316 317 315 312 315 318 317 312 306 302 300
326 324 322 320 322 319 319 319 319 318 318 318 318 318 318 316 314 317 318 319 319 316 312 311 311 313 314 315 314 313 312 310 311 312 311 311 315 318 315 311 303 302 302
327 326 324 322 321 321 319 319 320 320 319 318 319 319 318 315 313 313 315 315 315 314 314 313 310 309 311 314 314 316 316 316 313 311 309 311 316 316 311 305 303 299 301
328 327 326 324 323 322 322 320 320 321 321 320 319 319 319 319 316 314 314 316 315 316 317 317 317 317 315 311 310 313 315 317 316 316 313 313 316 311 307 303 302 302 305
328 328 328 327 326 324 323 323 323 322 322 322 321 320 320 320 320 317 316 316 317 317 318 319 318 319 319 320 319 313 310 313 313 316 317 316 317 314 307 303 303 305 302
328 328 329 328 328 327 326 324 324 324 324 324 324 323 322 321 323 323 322 319 317 318 318 319 319 319 318 318 319 320 319 311 312 314 316 316 315 310 310 302 304 302 299
330 328 329 330 329 329 329 329 327 327 326 325 325 326 325 322 324 324 324 324 323 322 322 321 321 321 320 319 318 318 318 316 312 313 315 314 313 310 305 303 304 301 296
330 330 328 331 331 331 331 330 330 330 329 329 329 329 328 327 325 324 325 325 324 324 324 324 323 322 322 320 319 318 317 316 312 311 313 314 314 307 302 303 303 299 295

GFSGL_850_thetae_006.txt.gz
Theta_e
330 331 332 331 330 328 329 327 326 325 325 325 325 327 327 328 327 325 327 328 330 328 327 325 329 328 329 330 328 328 329 329 328 328 326 325 324 324 326 325 324 324 324
330 331 331 331 330 326 329 328 325 326 325 325 326 326 326 328 329 329 329 328 329 328 326 327 329 329 328 329 330 327 326 327 328 327 325 326 326 325 326 325 326 326 324
329 330 331 331 330 329 330 328 327 325 325 325 327 326 328 330 329 329 329 330 329 329 329 330 330 330 330 328 329 329 325 326 328 327 326 326 326 324 325 325 323 319 316
328 329 330 330 331 330 329 328 327 326 326 328 327 328 328 329 330 328 328 329 329 329 329 330 329 330 329 329 330 328 328 328 327 327 326 325 324 325 325 321 317 314 309
327 329 329 330 330 329 329 328 328 328 329 329 328 328 329 329 329 330 327 329 329 329 329 329 329 329 328 329 330 328 328 328 327 326 325 324 324 323 322 322 320 315 313
327 328 328 328 328 329 329 329 329 329 328 328 328 328 328 327 323 323 327 330 330 329 329 328 328 328 328 328 329 329 328 326 326 325 325 322 321 321 320 322 312 314 319
327 327 328 328 329 329 329 329 329 329 329 328 328 328 330 323 323 323 324 329 330 329 328 328 328 327 327 328 327 328 328 327 326 325 324 323 322 321 321 322 319 318 320
326 327 327 328 329 330 330 329 329 329 329 327 328 329 330 323 323 325 325 327 329 329 328 328 328 328 326 327 328 327 327 327 326 326 325 324 325 325 325 322 320 324 322
324 327 327 328 328 328 328 330 330 330 330 329 328 328 328 323 326 326 327 328 328 329 328 329 328 328 327 327 327 326 325 326 326 325 323 323 324 324 325 322 324 323 323
323 326 327 328 328 328 329 324 328 329 329 329 330 330 326 325 326 327 327 328 328 328 328 326 326 326 326 326 328 328 327 326 326 326 325 325 325 321 312 319 322 324 325
322 325 327 328 329 330 330 324 325 328 327 329 331 328 326 325 326 326 327 329 328 329 329 327 325 325 326 326 326 328 328 327 324 325 324 325 322 316 314 324 324 327 325
321 323 325 327 327 329 330 327 327 325 328 330 330 331 328 326 326 325 326 328 328 329 329 327 326 326 324 323 321 321 321 321 326 324 323 322 323 323 324 322 323 326 325
322 322 324 326 327 328 328 328 326 325 327 329 330 330 330 330 326 326 326 325 327 329 329 327 326 324 324 325 326 326 325 327 327 327 327 327 326 326 323 323 322 320 319
322 322 323 326 328 328 328 327 325 324 323 325 328 329 329 330 328 326 325 324 325 327 326 325 326 323 326 325 321 320 322 325 327 326 322 321 319 318 317 317 318 318 318
323 323 323 323 326 328 328 328 327 325 323 322 323 325 328 329 329 328 327 327 327 327 325 324 324 325 326 326 325 323 323 321 323 323 322 319 319 320 319 319 318 318 316
324 323 322 321 322 327 329 329 328 327 325 322 320 322 322 322 323 322 321 323 326 326 326 326 326 326 325 325 325 324 322 321 322 323 323 320 320 319 318 318 317 318 316
323 323 322 320 321 321 324 329 328 328 327 326 324 320 320 320 319 318 318 318 317 318 324 324 324 324 325 324 323 323 322 322 323 322 322 321 320 319 317 317 318 318 316
323 323 323 321 320 320 322 323 324 325 325 324 322 324 324 322 317 318 320 321 320 320 321 321 321 321 320 320 320 320 321 321 322 322 322 322 321 320 317 317 318 317 313
325 322 322 322 321 320 320 322 322 322 322 323 323 322 324 325 322 323 320 320 322 322 321 321 322 320 321 320 318 317 318 319 321 322 322 322 321 319 317 317 317 315 312
326 324 322 321 321 321 320 321 321 321 322 323 324 324 322 323 325 321 322 324 322 321 320 320 321 321 322 321 321 320 320 319 319 320 321 321 320 319 318 317 316 313 314
328 325 323 322 321 321 320 321 321 321 321 321 322 324 324 319 323 324 322 320 323 323 323 321 320 319 318 319 320 320 320 320 320 319 319 320 320 319 318 317 315 313 313
329 327 324 323 322 321 321 320 321 321 321 322 322 322 322 320 321 323 324 324 321 321 322 322 321 320 319 318 317 318 319 319 319 320 319 319 319 318 317 316 313 312 308
329 327 326 324 323 323 322 321 321 321 321 321 321 321 322 321 321 322 323 324 324 322 320 320 321 320 319 318 317 317 317 317 317 319 319 319 318 317 316 313 312 312 310
329 328 327 325 325 324 324 323 323 322 321 321 321 321 322 322 321 321 322 324 324 323 322 320 320 320 320 319 320 320 320 319 318 316 317 317 317 316 314 311 311 308 307
329 329 328 327 326 326 326 326 325 324 324 323 323 323 323 323 324 322 323 323 324 323 323 322 320 320 319 321 321 321 319 318 319 319 319 318 317 314 312 311 311 309 309
328 329 329 328 328 327 327 327 327 327 327 327 326 326 326 326 325 325 324 324 324 324 323 323 322 319 318 317 317 319 319 320 320 320 319 318 317 313 311 309 308 309 307

GFSGL_850_thetae_009.txt.gz
Theta_e
332 331 331 331 332 332 331 330 328 328 327 327 327 327 328 329 330 329 326 328 329 326 328 324 331 331 328 330 330 330 330 327 327 326 325 326 325 323 324 324 324 324 323
330 331 331 331 332 332 331 330 328 327 326 326 327 327 328 328 328 329 329 328 328 328 332 331 331 331 328 330 328 329 329 327 326 325 324 324 324 324 325 324 325 324 324
330 331 331 331 332 332 331 329 327 327 326 326 327 327 328 328 329 330 329 328 329 329 332 331 331 331 330 329 328 326 328 328 325 326 325 324 325 325 326 324 324 325 322
329 330 331 332 331 331 330 329 328 326 326 327 328 328 328 329 330 330 328 330 329 329 330 332 331 331 329 329 328 326 326 326 326 326 325 324 325 325 325 324 323 320 316
329 330 332 331 331 330 329 329 328 327 328 327 328 328 329 330 329 330 331 329 328 329 331 331 330 329 329 328 328 326 326 326 325 326 325 325 325 325 323 321 317 314 314
329 330 331 330 330 330 329 329 328 329 328 327 328 328 329 329 324 327 331 330 329 329 329 329 329 329 329 329 328 327 328 326 326 326 325 323 325 323 319 315 313 314 318
329 329 329 330 330 330 330 329 329 329 328 328 328 329 330 323 323 324 328 330 330 330 329 328 328 328 328 329 328 329 327 327 326 325 324 324 324 322 321 317 315 316 320
328 329 329 330 331 330 330 330 331 329 329 330 330 328 328 323 323 325 326 330 329 329 329 328 328 329 329 329 329 329 327 326 325 323 323 322 321 321 318 315 319 322 321
328 329 329 330 331 331 331 331 332 329 329 327 328 331 330 323 326 326 328 331 330 331 329 328 328 328 328 328 328 328 327 326 324 324 324 321 320 322 324 320 325 324 322
327 329 329 330 330 330 331 332 332 332 331 330 329 330 328 325 326 327 328 330 330 329 328 329 327 328 327 326 327 326 327 327 325 325 324 325 325 325 323 323 324 323 323
326 329 329 330 330 332 331 331 331 331 330 330 329 331 330 326 327 328 328 329 330 329 329 328 326 327 327 326 325 325 325 324 324 324 324 325 325 324 320 322 324 325 325
325 328 330 331 330 332 332 330 329 330 331 330 330 330 328 326 326 328 328 329 329 329 328 327 326 326 326 327 327 328 326 326 327 327 327 328 326 319 320 325 325 327 327
324 327 329 331 330 332 332 329 328 329 331 331 332 331 330 329 325 326 329 328 329 330 328 327 326 325 324 325 323 322 325 326 324 323 325 325 323 322 324 326 324 326 325
324 327 328 329 330 331 329 328 326 327 330 330 331 331 331 330 329 326 326 328 329 330 327 326 324 323 325 323 323 323 328 327 327 326 325 325 326 327 326 324 322 322 322
325 325 327 328 329 330 329 328 326 325 325 328 328 330 331 330 330 329 327 328 329 328 326 326 324 327 327 324 325 325 327 328 328 326 325 326 327 327 326 324 321 319 317
325 326 326 327 328 329 329 330 328 326 323 323 325 328 329 329 329 326 327 328 329 326 328 328 327 327 327 326 325 325 324 325 325 325 325 324 323 323 322 321 320 319 318
325 325 325 325 327 330 329 330 329 328 326 321 322 324 324 325 326 324 325 327 327 327 328 328 328 328 328 327 326 325 324 324 324 326 326 323 322 322 321 321 320 319 320
325 325 325 323 324 325 329 330 330 329 328 324 319 320 321 322 321 317 317 317 319 323 327 328 328 328 327 327 326 325 324 323 324 325 324 324 322 322 322 320 320 319 320
326 325 324 324 322 323 323 326 328 328 329 327 324 323 320 320 318 318 318 319 322 321 321 324 325 325 324 324 324 324 323 323 323 324 325 324 324 323 322 320 320 319 320
326 326 324 324 323 322 322 323 324 324 325 324 324 324 323 324 322 318 318 320 323 322 321 320 322 323 322 322 321 320 320 320 321 322 323 324 324 324 323 321 319 320 318
328 328 324 323 323 322 322 322 323 323 324 324 324 324 325 319 324 323 320 319 320 321 322 322 322 322 323 323 323 322 321 320 319 320 321 323 323 323 322 321 320 320 317
330 329 327 324 322 323 322 322 322 322 322 323 324 324 325 325 323 324 324 323 321 321 322 323 323 322 321 321 322 323 323 322 321 321 321 320 321 322 322 322 321 319 316
332 331 330 326 323 323 323 322 322 322 322 322 323 323 323 325 324 322 323 324 324 323 322 322 323 323 322 321 320 319 320 322 322 321 321 322 321 321 321 321 321 319 317
332 331 331 328 325 324 324 323 322 322 322 322 323 323 323 323 324 322 322 323 325 325 325 322 321 322 323 322 321 320 319 318 319 320 321 321 321 321 321 321 320 318 314
332 332 332 330 327 324 325 325 324 324 323 323 323 323 323 323 324 324 323 322 323 325 326 326 324 322 322 322 322 321 320 319 318 318 317 317 318 320 320 320 319 316 312
330 331 332 331 329 327 325 326 326 325 325 324 323 324 323 323 323 324 325 324 323 324 325 326 325 325 323 322 322 322 321 321 321 321 320 321 321 319 320 320 317 314 310

GFSGL_850_thetae_012.txt.gz
Theta_e
333 333 331 330 331 330 331 330 329 327 328 327 328 328 328 328 329 326 325 325 328 327 328 328 329 329 328 328 329 330 330 330 328 327 326 325 326 323 322 323 322 324 324
332 331 330 331 331 330 330 329 329 327 327 327 327 327 328 328 328 327 329 328 329 328 329 328 331 328 327 328 329 329 330 328 326 325 323 323 323 323 323 323 323 324 323
332 329 330 330 332 330 329 328 328 328 327 327 327 327 328 328 328 329 327 326 327 328 329 330 328 329 328 328 330 329 327 327 325 324 324 323 323 323 323 324 324 323 324
332 330 331 331 329 329 329 328 328 327 327 326 328 326 327 328 330 330 330 328 328 327 329 329 328 329 329 326 327 326 327 325 324 324 324 324 325 324 324 323 323 323 321
330 331 330 331 330 329 329 328 327 327 326 328 327 329 329 329 328 330 330 328 327 328 329 328 329 328 329 327 325 327 326 325 325 324 324 324 324 324 324 324 322 321 318
330 332 332 331 331 329 328 327 327 326 327 327 328 327 330 328 327 329 329 329 328 328 328 329 328 328 327 326 325 326 325 325 325 324 324 325 324 325 324 323 319 316 318
331 331 331 331 331 329 328 328 328 328 327 327 327 328 329 323 323 329 329 330 329 328 327 328 329 329 327 327 326 326 326 325 325 325 324 324 324 322 322 318 313 314 313
330 330 331 331 331 330 329 329 329 328 328 329 328 327 327 323 323 326 328 329 329 329 328 328 328 329 329 328 327 326 325 325 325 325 324 324 323 321 320 317 312 315 317
329 330 330 330 330 329 329 330 329 328 327 327 329 328 327 323 326 327 329 329 329 329 328 329 329 329 329 328 328 327 326 325 325 324 324 323 321 320 316 319 322 320 321
329 329 331 331 331 330 331 331 327 327 329 328 328 329 329 325 326 327 329 329 329 329 329 328 329 328 329 329 327 326 326 325 324 323 323 321 321 320 318 323 322 321 321
329 329 331 331 331 331 331 331 329 331 330 329 329 329 326 326 327 328 328 329 328 329 328 327 327 327 328 328 328 326 327 324 324 323 322 320 322 324 321 325 325 322 322
329 330 330 331 332 332 330 330 331 331 328 329 328 329 328 326 327 328 329 329 328 328 327 327 326 325 325 326 327 327 325 324 324 323 322 325 325 324 322 324 324 326 324
328 330 331 330 333 332 330 330 330 329 330 329 330 329 328 326 328 328 329 329 328 327 326 326 326 325 325 327 324 326 326 325 325 324 324 324 325 324 320 324 324 325 326
327 330 331 331 333 332 331 328 329 332 330 332 331 331 329 326 326 328 329 329 329 326 326 326 326 326 328 327 326 326 326 326 326 325 326 326 322 314 321 324 324 325 326
325 329 330 331 331 332 330 327 327 327 331 331 331 330 330 330 327 327 328 329 329 326 326 324 323 323 322 320 325 326 326 327 324 324 324 323 323 323 323 324 322 321 323
325 328 328 330 330 331 330 328 328 325 325 325 332 330 330 331 327 326 328 329 329 326 326 324 325 326 324 322 324 327 326 328 328 327 326 326 327 327 327 327 324 322 321
326 326 327 328 329 331 329 330 328 326 324 324 327 329 329 329 328 325 327 329 328 326 327 324 325 328 327 324 324 325 325 327 327 327 324 325 325 324 325 324 322 320 319
325 326 326 326 329 329 330 330 330 328 326 323 323 324 325 326 328 323 325 327 329 327 329 328 328 327 328 327 326 325 325 324 325 326 325 325 323 323 323 323 321 320 319
326 325 326 326 326 327 330 330 331 330 329 327 320 322 323 323 322 320 319 322 326 326 327 330 330 329 328 328 327 326 326 325 324 324 325 326 325 323 323 322 321 320 320
326 326 326 326 324 325 324 328 330 331 330 329 326 322 317 321 322 321 318 317 316 317 322 326 327 327 327 327 327 327 326 325 325 324 323 325 325 324 323 323 322 321 320
326 326 326 324 327 323 324 323 325 327 330 330 328 327 324 314 317 318 317 317 316 321 321 318 319 324 324 324 323 323 323 324 324 324 323 323 323 325 325 324 324 322 320
328 328 327 326 324 326 323 323 323 324 325 326 326 326 325 324 322 315 314 313 313 315 320 324 323 322 321 323 324 323 322 321 320 319 320 321 323 323 324 324 324 323 321
330 330 329 328 326 324 325 323 323 323 324 324 325 325 325 325 325 324 322 319 317 317 315 315 322 324 323 322 321 322 324 324 323 323 322 320 320 321 322 323 324 323 322
334 332 331 330 328 326 325 324 323 323 323 323 323 324 325 324 324 324 325 323 323 323 323 323 321 318 323 324 323 323 321 321 322 323 323 323 322 322 322 321 322 323 323
334 333 333 332 330 328 326 325 324 323 323 323 323 323 323 323 323 323 324 324 323 324 325 325 325 325 322 321 324 323 323 322 321 320 320 321 322 322 322 322 322 322 322
333 333 333 334 334 331 329 326 325 324 324 323 323 323 324 324 324 324 324 323 323 322 325 325 326 325 325 325 322 322 323 323 322 321 320 319 319 319 320 321 322 322 322

GFSGL_850_thetae_015.txt.gz
Theta_e
334 332 329 329 329 328 328 330 328 328 328 325 325 326 328 327 328 326 326 324 325 325 324 326 325 325 327 328 328 328 328 327 327 325 326 330 331 328 326 328 328 321 322
332 333 330 330 329 330 329 328 329 326 326 328 326 327 327 328 327 328 327 327 326 326 326 324 326 326 327 328 329 328 328 328 327 327 327 328 328 327 322 322 320 321 321
331 330 329 329 329 330 329 328 327 325 326 326 327 327 327 327 328 328 327 326 328 326 326 326 327 328 328 328 328 328 328 326 325 324 322 322 323 323 324 323 323 323 322
330 329 329 328 329 329 328 327 327 326 326 326 327 326 327 328 329 329 327 328 328 326 328 328 328 328 328 327 328 328 326 325 324 323 322 324 323 323 323 323 322 321 318
331 329 329 329 328 328 327 326 327 327 326 327 327 327 327 328 329 330 328 327 327 327 327 327 328 328 328 326 327 327 325 323 323 323 323 323 323 323 323 323 322 320 320
330 329 331 330 328 328 328 327 326 327 325 326 328 327 329 325 329 329 328 327 327 327 328 328 328 328 326 325 325 326 324 324 323 323 324 323 323 323 323 323 322 321 318
330 331 331 331 330 328 327 326 326 326 326 326 326 326 328 323 327 328 329 329 328 328 328 328 328 326 326 326 326 325 324 323 323 322 324 323 323 322 323 323 322 320 319
330 331 331 330 329 327 327 327 327 326 326 327 327 327 327 323 325 328 328 329 329 328 328 328 327 327 326 326 325 325 324 324 324 324 324 323 324 324 323 322 319 317 316
330 330 331 330 329 328 328 328 328 327 327 328 329 327 327 323 325 328 329 329 328 328 328 328 328 328 327 326 325 325 325 324 324 325 324 324 324 323 319 314 314 312 311
330 330 330 329 328 328 329 328 328 328 327 327 327 328 326 324 326 329 329 329 328 328 328 329 329 328 327 325 326 325 325 324 324 324 323 322 321 316 314 314 313 313 315
329 329 331 330 330 330 330 328 328 330 330 328 328 328 324 326 327 329 329 329 329 328 328 328 328 328 328 326 326 325 325 325 324 323 322 320 319 316 321 322 321 318 312
329 329 331 331 331 331 326 329 331 330 328 329 329 327 325 326 327 328 329 328 328 327 328 328 328 328 328 328 326 326 325 325 324 323 321 320 320 318 321 324 323 325 321
329 330 331 330 330 329 321 330 331 329 329 328 328 328 326 326 328 329 329 328 328 327 326 326 326 326 327 328 326 326 325 324 323 323 321 322 323 321 322 323 326 327 325
329 330 331 330 332 332 322 328 328 330 329 329 327 326 325 327 328 328 329 328 327 326 325 325 325 325 325 326 327 326 324 324 323 322 321 321 322 323 322 323 324 324 324
328 330 331 330 332 332 323 328 328 330 330 330 329 328 326 326 328 328 328 327 326 326 326 326 326 328 326 325 325 325 324 324 323 323 324 324 324 323 322 321 323 324 324
327 330 330 330 332 332 328 327 328 327 327 331 330 328 329 327 326 328 328 328 325 325 325 325 325 326 326 325 324 324 324 324 324 324 324 323 320 314 318 319 321 321 321
325 328 329 329 330 332 329 329 327 326 325 324 331 330 330 329 325 327 328 329 326 325 324 322 321 319 318 323 324 325 326 326 327 324 324 324 323 320 319 321 323 324 324
326 325 326 328 328 330 330 329 328 326 324 323 325 331 330 329 328 325 327 328 328 326 325 323 323 323 320 323 326 326 326 326 328 328 327 325 324 325 326 326 327 326 322
325 325 325 325 328 329 330 330 330 329 327 326 323 324 325 327 327 325 324 325 326 325 326 326 323 327 328 326 322 323 325 325 326 327 327 326 327 326 325 323 322 322 322
325 325 325 325 326 328 329 330 330 331 331 329 327 322 323 324 324 324 320 322 325 325 325 326 327 327 326 327 328 327 325 325 324 325 325 325 326 325 325 324 323 323 322
326 325 325 325 325 326 327 327 331 330 331 331 330 328 321 318 322 322 320 316 317 320 324 325 327 329 329 329 328 327 328 327 326 326 325 324 323 324 325 325 324 323 322
326 326 325 325 324 326 326 325 325 327 329 331 331 330 329 326 321 316 318 319 317 314 313 313 320 327 329 328 327 327 326 326 327 327 326 325 325 324 323 325 325 325 323
329 327 326 326 326 325 326 326 324 323 324 325 327 329 329 328 326 324 323 320 315 313 314 315 314 315 317 323 325 324 324 324 322 322 322 322 322 322 323 323 323 324 325
335 333 329 327 327 327 326 325 325 323 322 323 324 325 326 326 325 324 324 324 324 323 321 315 313 314 318 320 320 320 322 323 323 324 323 322 321 320 319 319 321 322 323
333 334 334 333 329 328 328 328 325 325 324 323 323 323 323 324 325 325 324 324 324 323 323 320 318 318 318 315 316 323 324 323 323 322 321 322 323 323 323 323 322 321 321
327 332 333 333 333 331 329 329 329 325 325 324 323 323 323 323 323 323 323 323 323 323 323 323 322 320 321 322 324 322 319 322 324 323 323 322 321 321 322 322 323 322 322

GFSGL_850_thetae_018.txt.gz
Theta_e
333 331 328 329 331 331 330 326 327 325 326 325 325 326 328 328 327 327 326 325 324 323 324 325 325 326 325 327 328 327 328 327 327 327 327 331 331 331 332 330 329 328 328
329 328 328 329 329 328 327 329 328 327 326 326 326 326 326 328 327 327 328 326 324 325 325 325 325 326 326 327 328 327 327 326 327 324 329 329 325 327 329 329 328 325 317
331 330 329 329 329 329 328 327 327 325 326 326 326 326 327 327 328 328 327 327 324 325 326 324 326 327 327 327 325 328 327 327 326 326 326 326 325 325 324 325 322 322 320
330 328 328 328 329 328 328 327 324 325 326 326 326 326 326 327 328 328 327 326 327 327 326 326 326 327 328 327 328 328 327 326 326 326 324 323 322 321 323 322 321 321 321
329 328 328 328 327 328 327 326 325 326 326 325 326 327 327 326 329 328 328 326 327 327 328 327 327 327 327 327 328 327 326 324 324 323 323 322 321 321 321 321 322 321 320
330 328 329 328 327 326 325 325 325 325 325 326 326 326 327 327 328 328 327 327 327 327 327 328 328 328 327 326 327 326 324 324 323 323 323 323 321 321 322 322 321 320 318
329 329 330 328 327 327 326 325 325 326 325 325 326 326 327 324 328 329 329 328 328 328 328 328 328 326 326 325 325 324 323 323 323 322 322 322 323 323 323 321 321 320 320
329 330 331 329 328 326 326 325 326 326 325 325 326 326 327 323 327 328 328 329 327 328 328 328 326 326 325 325 324 323 323 323 323 322 322 322 323 322 322 322 321 320 315
330 330 330 329 327 327 326 327 326 325 325 325 327 327 327 324 325 328 329 327 328 328 328 326 326 325 326 325 324 323 323 323 323 323 323 323 323 323 323 322 320 317 314
330 330 329 329 327 327 327 328 328 327 326 327 327 327 326 323 327 328 329 328 328 328 328 327 327 325 325 324 324 323 323 323 324 323 323 323 323 323 322 321 317 315 313
329 329 329 328 328 328 329 327 327 327 327 327 327 327 325 326 327 329 329 329 327 328 328 328 327 326 325 325 324 323 323 325 324 323 324 324 323 320 316 314 312 311 310
329 329 329 329 330 330 329 326 329 329 329 328 327 328 324 326 327 328 329 329 327 328 329 328 328 327 325 325 324 324 323 324 324 323 322 319 315 316 319 319 320 319 313
329 329 330 330 330 330 326 329 331 328 328 328 329 326 325 326 328 328 328 328 327 328 327 327 327 327 326 326 325 324 324 324 324 323 320 319 316 318 323 323 322 322 324
329 329 330 330 330 328 322 328 328 328 328 327 328 327 325 327 328 328 328 328 327 326 326 327 327 326 326 326 325 325 325 324 323 322 320 318 317 317 321 323 324 325 326
329 329 330 330 331 331 323 327 328 329 329 328 326 325 325 327 328 328 327 327 327 325 325 325 326 326 326 326 326 325 325 324 324 322 320 322 323 322 320 323 323 324 324
329 329 330 330 330 331 323 327 328 329 328 329 329 327 325 327 327 327 327 326 326 324 325 325 324 325 326 326 326 326 324 324 323 323 321 320 320 321 323 321 322 323 323
328 329 330 330 330 330 329 325 326 327 327 327 330 328 328 325 327 327 328 326 326 325 325 326 326 325 324 325 325 324 324 323 323 323 323 323 323 323 323 322 320 320 321
326 327 328 329 329 329 329 327 326 327 325 325 331 330 329 326 325 327 328 326 325 325 325 323 321 322 325 323 323 323 322 322 322 323 323 323 322 320 317 313 313 314 316
324 327 326 326 327 327 328 330 328 328 326 324 324 330 330 330 325 325 327 327 325 325 325 323 321 317 316 322 322 322 323 325 326 327 327 326 324 324 324 323 324 325 325
324 324 326 325 326 326 327 328 329 329 329 327 325 323 326 329 328 326 325 326 326 324 324 324 324 322 318 318 323 325 326 325 325 325 327 328 328 328 327 326 326 325 325
327 325 324 325 325 325 326 328 329 329 329 330 330 328 325 321 324 325 323 322 324 325 325 324 325 324 323 323 322 321 323 323 323 324 324 324 325 326 326 325 325 324 325
326 326 325 325 325 325 325 325 328 329 329 329 329 330 329 327 324 320 320 321 318 317 323 324 324 324 325 324 324 326 327 327 326 326 325 325 324 324 325 324 324 324 325
330 327 326 326 325 325 325 325 325 326 327 329 330 329 330 329 328 326 324 320 317 316 316 315 318 323 324 325 327 328 328 328 327 327 327 327 327 326 326 325 325 324 323
331 330 329 327 327 326 325 325 324 325 325 325 325 327 326 327 329 328 327 326 324 322 319 316 315 314 313 314 320 325 328 327 326 326 327 327 325 325 325 325 324 323 322
327 329 331 331 331 329 326 326 326 325 325 326 324 324 323 323 324 325 325 326 325 324 323 323 322 320 316 313 312 312 313 321 326 326 323 322 323 323 323 322 322 321 320
323 325 326 329 331 332 332 332 329 327 326 325 325 325 324 323 322 323 323 323 324 324 324 324 323 323 323 322 318 315 313 313 316 319 321 321 322 322 321 321 323 323 323

GFSGL_850_thetae_021.txt.gz
Theta_e
334 334 333 332 330 329 329 327 325 324 322 323 325 325 327 328 328 327 327 326 323 322 322 324 324 324 326 326 326 326 326 327 326 327 331 331 329 330 329 331 329 329 331
333 330 328 327 329 328 329 327 326 325 325 324 325 326 325 327 327 327 328 328 325 324 325 324 325 325 326 325 327 328 326 327 327 327 330 327 330 330 331 329 329 330 327
326 327 328 328 329 328 327 327 328 326 324 326 326 325 326 327 327 328 328 327 327 325 325 326 325 325 325 326 327 327 327 327 326 325 329 326 329 329 327 326 327 323 325
328 328 328 327 328 328 328 327 325 324 326 326 325 326 326 327 328 328 327 326 324 325 325 326 325 326 326 327 326 327 327 327 325 324 327 324 325 324 326 324 320 320 318
328 328 328 328 327 327 327 326 324 326 325 325 325 326 327 327 328 328 327 326 327 325 326 326 326 327 328 327 327 327 327 326 325 326 324 322 321 320 322 321 321 319 318
330 328 328 327 327 327 327 325 325 325 325 325 326 326 327 327 328 328 326 327 328 328 328 327 327 327 326 326 327 327 326 325 325 324 322 320 320 320 321 320 320 320 320
331 329 328 327 326 325 324 325 325 324 324 326 327 325 327 323 327 328 329 328 328 327 327 328 327 326 326 326 326 324 324 323 323 324 322 322 321 322 321 321 320 321 320
331 329 329 327 327 326 325 325 324 325 325 325 325 325 326 324 325 327 328 328 327 328 328 328 327 326 325 325 324 322 323 323 322 322 322 322 322 322 321 322 321 321 319
329 330 330 328 326 326 325 325 326 325 325 325 325 326 327 325 324 327 328 327 327 328 328 326 325 324 324 324 323 323 323 323 323 322 323 322 322 322 322 322 320 320 315
329 328 329 329 326 326 326 326 326 325 325 325 326 327 327 324 326 328 328 328 328 328 326 326 325 324 324 324 323 323 323 323 322 322 323 322 322 322 321 321 320 314 310
329 328 329 328 327 327 327 328 328 327 327 327 327 326 326 324 327 328 329 328 327 328 327 326 325 324 324 323 323 323 323 322 322 322 323 323 322 322 322 320 317 314 312
329 328 329 328 328 328 329 326 327 327 328 327 327 326 326 325 327 328 329 328 328 327 327 326 325 324 324 323 323 322 323 323 322 323 323 323 322 322 322 319 315 314 312
329 329 328 329 329 329 328 325 329 329 328 329 327 327 324 326 327 328 328 328 328 328 328 326 325 325 324 323 323 324 324 323 323 323 323 322 317 314 314 315 316 313 311
329 329 329 329 330 329 323 328 329 328 328 328 328 328 324 326 327 328 328 327 327 327 327 326 325 325 325 324 324 324 324 324 323 321 319 315 318 321 321 322 322 322 322
329 329 329 330 330 329 324 327 328 328 327 326 327 326 324 325 327 328 327 327 327 327 327 326 325 324 325 325 324 324 323 324 323 321 320 317 316 321 320 321 322 323 324
329 329 329 330 330 330 325 327 328 330 329 329 327 325 325 327 328 328 327 327 325 325 327 327 325 325 327 325 324 324 324 324 323 322 320 318 317 317 320 321 322 322 323
327 329 329 330 330 330 328 324 328 328 328 329 329 328 326 327 327 327 326 326 324 324 324 326 327 328 327 325 325 325 325 324 324 323 322 320 322 322 322 322 321 321 321
325 327 328 329 329 330 329 325 325 326 326 325 329 329 328 326 327 327 326 325 325 324 325 325 324 325 326 325 325 325 325 324 324 323 323 322 321 320 320 322 322 322 319
324 325 328 329 329 329 329 328 325 325 326 324 328 329 329 329 326 327 328 325 325 325 325 325 324 324 323 325 325 325 324 323 323 322 322 322 322 322 322 321 319 315 313
325 324 324 327 328 329 329 328 328 327 327 327 324 324 329 329 328 325 326 327 326 324 324 324 323 321 318 323 323 324 324 323 322 321 321 322 322 323 323 324 323 323 324
326 325 324 324 326 327 327 326 326 327 328 328 328 327 325 323 322 324 324 323 324 326 325 324 324 323 321 317 317 322 321 320 321 324 325 326 326 326 327 327 327 327 327
325 326 326 325 324 326 326 325 324 325 327 328 328 329 329 325 325 324 323 321 320 319 322 325 324 323 324 323 320 317 320 323 324 325 325 324 324 324 324 324 324 325 325
327 326 326 326 326 326 326 326 325 324 324 326 327 327 329 329 329 328 328 327 325 321 318 317 319 324 324 324 324 323 321 319 319 321 323 323 323 324 324 324 325 325 325
326 328 327 326 326 326 327 327 326 325 325 325 325 326 326 327 329 328 327 327 328 327 326 322 317 316 315 318 323 323 324 325 323 323 325 326 326 327 327 327 327 327 327
326 326 328 329 330 328 326 326 326 326 326 326 325 325 325 325 325 325 326 326 325 325 325 326 325 322 320 317 315 314 315 320 323 325 326 327 328 327 326 326 326 326 326
320 323 324 325 327 330 331 331 331 329 327 326 326 325 325 325 325 325 324 323 323 323 323 323 324 325 324 323 323 322 320 318 315 313 313 317 321 326 327 326 324 322 321

GFSGL_850_thetae_024.txt.gz
Theta_e
339 339 337 335 334 333 332 329 327 325 324 324 323 325 326 327 327 327 327 327 326 323 322 323 324 323 324 325 325 325 326 326 326 324 325 328 329 327 326 327 327 328 329
334 333 333 332 331 329 328 327 325 323 322 324 325 325 325 326 327 327 327 328 327 325 324 322 324 323 325 326 325 326 325 326 327 326 327 329 328 327 330 328 329 329 330
332 331 328 327 328 328 328 327 326 324 324 324 325 325 325 326 326 327 328 328 327 326 325 324 325 324 325 325 325 326 327 327 326 326 327 327 328 330 329 328 328 326 326
325 326 327 328 328 328 327 327 327 325 325 325 325 325 326 326 327 328 327 326 326 324 326 325 325 325 325 325 326 327 327 327 326 328 327 326 326 325 327 325 322 324 319
327 327 327 327 328 327 327 326 323 325 325 325 325 326 326 328 328 328 327 327 327 327 326 325 326 326 327 327 327 326 327 327 326 326 325 325 324 323 325 324 324 322 319
327 328 327 328 327 327 326 325 324 325 324 324 325 325 324 327 328 328 327 327 327 326 327 326 326 326 327 327 327 327 327 326 326 325 324 324 324 324 324 323 322 319 317
329 328 328 328 326 326 326 324 325 324 324 324 326 325 325 324 327 328 328 328 328 327 327 327 327 327 326 326 325 324 325 324 324 324 324 323 322 323 323 320 320 319 318
330 329 328 326 325 324 324 324 325 324 324 324 325 325 326 325 325 327 328 327 327 328 328 327 326 326 326 325 323 324 324 323 323 323 323 322 322 322 321 321 320 320 320
332 329 328 327 326 325 325 324 324 324 324 324 325 326 326 325 326 328 327 327 328 328 328 327 326 325 324 324 323 323 323 323 323 322 322 322 321 321 321 321 321 321 319
329 329 329 327 326 325 325 325 325 325 325 325 325 327 326 323 327 328 327 327 328 327 326 325 324 324 323 323 323 323 323 322 321 321 321 322 322 321 320 321 322 321 318
329 327 328 328 326 326 326 326 326 326 325 326 326 326 326 325 327 329 328 327 328 326 325 324 323 323 323 323 323 323 323 322 322 322 322 321 321 321 321 321 321 320 310
329 327 328 327 327 327 327 328 328 328 327 327 327 327 326 326 328 329 328 327 327 327 324 325 323 322 322 323 323 323 322 322 322 322 322 322 322 321 321 320 319 313 309
329 327 328 326 328 327 328 327 327 328 328 328 327 327 326 326 327 328 328 327 327 327 324 324 323 323 323 323 323 322 322 322 322 323 322 322 322 322 321 319 317 314 313
329 328 328 326 328 328 328 326 329 329 328 328 328 328 324 326 327 328 327 327 327 326 325 324 324 324 322 322 323 323 322 323 323 323 322 322 321 321 316 313 312 312 313
329 329 329 328 329 328 324 328 328 328 327 327 328 327 324 325 327 328 327 327 328 326 325 324 324 324 323 323 323 324 323 323 323 322 320 316 315 314 316 318 317 315 314
328 329 328 329 329 328 323 327 328 329 328 327 326 326 325 327 328 328 327 326 327 326 325 324 324 323 324 324 323 324 324 323 323 321 316 317 320 319 319 320 321 322 323
326 328 328 329 330 329 325 325 328 327 328 329 327 325 326 327 328 327 327 325 326 326 326 325 324 323 324 324 324 323 323 323 322 321 319 317 316 319 320 319 319 320 320
325 326 328 328 329 329 328 322 327 327 326 326 328 328 326 327 327 327 326 326 324 324 326 326 326 326 325 324 324 324 324 323 323 322 321 320 319 318 319 320 321 321 321
324 325 326 328 329 329 329 326 323 325 325 325 329 328 327 326 327 327 326 325 324 324 324 324 324 325 325 325 325 324 324 324 323 323 323 322 321 320 321 321 320 320 321
325 324 324 324 327 329 329 329 327 324 324 325 324 329 328 327 325 326 326 325 325 325 324 324 324 324 324 324 325 325 325 324 324 324 324 323 323 323 322 321 321 321 320
325 325 324 325 325 326 328 329 328 327 327 325 326 326 324 324 323 324 324 324 325 324 324 324 324 324 321 319 323 324 325 325 324 323 323 322 322 322 321 321 321 324 326
324 325 326 325 325 325 326 328 328 326 325 327 327 327 328 326 325 325 325 324 322 321 323 325 324 324 324 323 318 315 320 322 324 324 323 321 321 321 324 325 326 325 325
327 326 325 325 326 326 326 327 328 329 327 324 325 327 327 328 328 328 328 328 327 326 325 321 320 322 324 324 323 324 322 316 315 317 318 320 323 324 325 324 324 322 322
327 328 327 326 325 326 326 326 326 327 328 328 326 325 325 326 326 327 327 327 327 327 327 327 326 323 318 317 321 324 323 324 323 320 317 319 321 323 323 323 323 324 326
328 327 328 328 328 328 326 325 325 325 326 326 326 326 325 325 325 325 325 325 325 325 325 325 326 326 326 325 321 316 315 316 320 322 323 323 323 323 323 323 324 325 327
321 323 324 324 325 326 326 328 330 330 328 327 326 325 325 325 325 325 325 325 325 325 325 324 324 323 323 323 325 326 324 322 319 316 315 316 317 320 323 324 325 325 326

GFSGL_850_thetae_027.txt.gz
Theta_e
341 340 340 339 335 334 333 333 332 330 328 325 323 323 323 325 327 327 327 327 327 326 323 324 324 324 323 323 324 325 324 326 327 325 326 324 325 325 325 326 328 325 327
340 338 336 335 334 333 332 330 328 325 324 323 324 325 326 326 326 327 327 327 327 327 323 322 323 325 323 325 326 326 326 326 328 326 324 327 328 327 327 326 327 326 328
334 334 333 332 331 329 328 326 324 322 323 325 325 325 325 326 326 327 328 328 328 327 325 324 324 325 324 325 326 325 326 326 327 326 327 328 327 328 329 328 329 327 330
331 329 327 327 327 328 327 326 325 324 324 324 325 325 326 326 327 328 327 326 327 327 325 325 325 325 325 325 325 326 326 326 327 327 327 327 328 327 327 327 328 326 324
326 327 327 328 327 327 327 327 326 324 325 325 325 326 325 328 328 327 327 327 325 325 325 325 325 325 326 326 326 326 327 326 326 326 326 326 325 325 326 325 323 321 321
327 327 327 328 327 327 326 323 324 325 325 325 326 326 323 327 328 328 327 327 327 326 326 325 326 326 326 327 327 326 327 326 326 327 326 326 324 324 325 324 323 319 318
328 327 328 327 327 327 325 323 325 325 324 324 325 326 324 325 326 327 328 328 328 327 327 326 326 326 327 327 327 326 326 326 326 326 326 325 325 325 323 322 321 319 318
329 329 329 327 326 325 326 324 325 324 324 325 325 326 326 324 327 328 328 328 327 327 328 328 327 326 326 325 324 324 324 324 325 324 325 325 324 324 324 323 321 320 320
332 330 329 327 325 324 324 325 324 323 323 324 325 326 326 324 327 327 327 327 328 328 327 326 326 326 325 325 323 324 323 323 324 324 324 325 325 324 324 323 320 320 319
331 331 328 327 325 325 325 324 324 325 324 325 325 327 326 325 328 328 328 328 328 327 327 325 324 324 324 324 325 322 322 323 323 322 323 322 323 323 322 320 320 320 319
330 329 328 327 326 325 325 325 325 325 325 325 326 327 325 327 328 328 328 328 327 326 325 324 324 323 322 322 322 323 323 323 322 321 321 321 322 321 320 320 320 320 319
328 327 327 328 326 326 326 327 327 326 325 326 327 327 325 327 329 328 327 327 326 327 324 323 323 323 323 323 323 322 321 321 321 321 321 321 321 321 321 321 320 319 314
327 327 327 327 327 327 327 328 327 327 327 327 327 327 326 327 329 328 327 326 326 325 325 323 322 323 323 323 322 322 322 322 321 322 321 321 320 320 321 321 320 318 313
328 327 327 328 328 328 329 326 328 329 328 328 328 327 325 327 328 328 327 326 326 324 323 323 323 323 323 323 322 322 323 322 323 323 322 321 321 321 321 319 317 312 313
329 328 327 327 328 328 327 328 329 327 327 328 328 327 324 326 328 328 327 326 326 324 323 322 322 322 323 322 322 322 322 322 324 323 322 322 321 321 321 318 318 315 317
329 329 328 329 329 329 325 328 328 328 326 327 327 326 325 327 328 327 327 327 326 324 324 323 322 323 323 323 323 323 322 323 323 322 322 323 323 322 319 317 319 316 317
328 329 329 328 329 329 324 328 328 329 328 325 325 325 326 327 328 327 327 326 326 324 324 324 323 323 323 324 324 323 323 323 323 322 321 321 320 319 317 321 321 322 323
327 327 328 328 329 329 327 327 329 328 328 328 327 326 327 327 327 327 326 326 326 325 324 324 324 323 324 324 324 324 325 323 322 321 321 320 320 321 320 322 322 323 324
326 325 326 328 328 330 328 323 328 327 327 326 328 327 326 327 327 326 326 324 325 325 326 325 324 323 324 324 324 323 324 324 323 322 321 320 319 319 320 321 322 322 323
324 324 325 326 328 329 329 328 323 325 325 325 328 328 326 326 326 326 325 325 324 324 325 325 325 324 324 324 323 324 324 324 323 324 324 324 323 323 323 323 324 324 324
324 324 324 326 327 328 330 329 329 326 324 325 325 324 326 327 326 325 326 325 325 325 324 324 323 323 324 324 325 325 325 324 324 324 325 325 325 325 325 325 325 324 324
324 325 325 324 324 325 327 329 329 329 328 327 326 326 327 326 326 326 326 325 324 324 325 325 324 324 324 321 319 322 323 325 325 324 324 324 324 323 324 325 325 324 324
325 324 324 325 325 325 325 326 328 329 330 329 328 327 327 327 328 328 328 327 327 326 325 323 322 324 324 324 323 323 321 317 320 324 325 325 325 325 324 324 324 324 325
326 326 325 325 325 325 325 326 326 327 329 330 330 329 327 327 327 327 328 328 328 327 327 327 327 326 324 320 319 323 324 323 324 323 318 317 321 323 322 324 324 325 326
325 326 327 327 327 326 326 325 325 325 325 325 326 326 327 327 326 326 325 325 325 325 325 326 327 327 327 327 326 325 322 317 317 321 323 323 323 322 322 322 322 323 324
319 321 325 326 326 326 328 328 328 328 327 326 326 325 325 324 324 325 324 324 324 324 324 324 324 324 323 324 324 325 326 326 326 324 321 320 320 320 324 324 324 324 324

GFSGL_850_thetae_030.txt.gz
Theta_e
344 344 343 343 341 340 339 338 335 332 333 334 332 331 329 330 330 330 330 329 328 329 330 330 330 329 328 327 328 328 327 326 329 328 328 327 327 327 325 326 327 327 329
343 342 341 340 339 338 337 335 334 333 332 330 329 329 329 331 331 331 331 331 329 327 330 329 330 330 330 329 328 330 331 329 330 330 327 325 327 327 324 326 327 325 327
341 340 339 339 338 337 335 332 331 331 329 328 329 329 329 330 331 330 329 327 327 328 330 330 329 330 330 329 328 330 330 329 330 326 329 324 327 325 325 327 328 325 329
337 337 337 337 336 335 333 331 330 329 329 329 329 329 330 331 332 331 328 330 329 330 331 331 330 331 331 329 329 330 330 329 330 326 326 329 329 328 327 327 328 329 328
332 332 333 333 333 332 331 330 330 329 328 329 330 330 331 332 329 329 331 329 326 328 329 331 330 330 328 326 330 328 330 330 328 326 328 327 328 328 329 330 329 327 325
330 331 332 331 332 332 331 331 329 329 330 330 331 330 330 330 328 328 327 326 328 327 329 330 327 325 325 326 326 326 331 328 326 326 328 328 328 328 328 328 327 325 320
331 332 332 331 331 331 330 329 328 330 330 330 330 329 330 327 326 328 328 328 328 327 326 327 326 326 326 327 327 327 327 327 326 326 327 327 326 327 327 325 326 325 321
331 332 332 330 330 329 327 328 330 329 327 326 330 330 331 324 327 328 328 328 328 328 327 327 327 327 327 327 327 327 327 326 326 327 326 326 326 326 326 324 323 322 320
331 332 330 329 328 329 327 329 330 325 324 328 330 330 329 326 328 328 327 328 327 328 328 327 327 326 326 325 326 326 326 325 325 326 326 326 326 325 325 324 321 320 319
332 331 329 328 326 327 328 329 329 324 324 330 330 327 325 327 328 328 327 327 328 327 326 326 326 326 326 325 325 325 325 325 324 324 325 324 324 322 323 322 321 319 318
331 330 330 329 329 329 329 329 329 329 329 330 329 328 325 328 329 328 328 328 328 327 326 325 325 325 324 324 325 324 324 323 324 324 323 322 321 321 321 321 321 320 320
329 330 330 331 330 329 329 329 330 330 330 330 330 330 325 328 328 328 327 327 326 325 324 323 323 322 323 323 323 323 323 323 322 322 322 320 320 320 320 321 321 322 322
329 330 330 330 330 330 330 331 331 330 331 331 331 330 326 328 328 327 326 327 326 324 323 323 323 323 323 323 323 323 322 322 322 321 320 320 320 320 321 321 322 321 316
330 330 332 331 331 331 331 331 333 332 332 331 331 331 327 328 327 327 326 325 325 324 323 323 323 323 322 322 321 322 322 321 321 321 321 321 321 321 321 322 322 321 320
331 331 331 332 331 331 332 332 332 331 331 331 331 330 328 328 330 327 326 325 323 323 322 323 323 322 322 322 324 322 324 322 324 324 323 323 323 324 324 323 321 319 318
331 330 330 331 330 330 331 329 328 327 328 329 330 329 328 329 328 327 326 325 324 323 323 325 325 323 323 324 325 325 326 324 324 324 325 324 323 322 322 321 320 319 319
330 330 329 330 330 328 332 331 330 327 326 326 326 325 326 328 327 327 327 326 324 323 325 326 326 325 325 325 326 326 326 326 326 325 325 325 325 324 323 322 320 320 319
330 329 328 329 330 328 328 330 330 331 330 326 325 327 328 328 327 327 326 326 325 324 324 325 326 326 327 328 328 327 327 327 326 326 325 325 324 323 321 321 321 322 322
330 328 329 329 330 330 326 329 330 330 332 330 326 327 327 327 327 326 325 326 325 325 327 326 327 327 328 328 328 327 327 327 326 325 325 324 323 322 321 320 321 321 322
330 329 330 330 330 330 329 325 328 329 329 331 330 327 327 326 326 326 325 326 327 327 327 327 327 327 328 328 328 328 328 328 327 326 326 325 324 323 323 323 323 323 323
327 327 327 330 329 330 329 328 326 325 326 328 330 328 326 329 329 326 327 329 329 328 328 329 329 329 329 328 328 328 327 328 328 327 327 327 327 326 326 325 324 325 324
327 327 327 327 328 329 330 330 330 328 326 325 327 325 326 329 329 329 329 329 330 330 329 329 328 327 328 329 329 329 328 327 327 328 328 328 328 328 328 327 327 327 327
328 328 328 327 328 330 330 330 330 330 329 328 328 327 326 328 330 330 331 331 331 330 329 329 329 329 329 328 328 327 327 328 329 329 329 329 328 328 328 328 328 327 327
328 328 329 330 330 330 331 332 332 332 332 331 330 329 328 329 330 330 331 332 332 332 332 331 331 330 329 328 328 328 328 328 327 326 327 328 328 328 328 327 327 326 326
325 326 326 327 329 329 328 329 329 329 329 330 331 331 332 331 330 330 329 329 329 330 331 331 331 331 331 331 331 330 329 327 326 327 327 327 327 327 326 326 326 326 325
323 325 324 325 327 327 326 326 325 325 325 326 326 326 326 326 327 327 327 327 327 328 328 329 329 330 330 329 329 330 330 330 329 328 327 327 327 326 326 326 326 325 325

GFSGL_850_thetae_033.txt.gz
Theta_e
346 346 345 345 344 343 343 342 342 341 340 338 337 336 335 334 332 329 333 333 332 329 328 332 331 327 330 328 328 325 325 326 325 328 329 328 327 328 325 328 327 322 324
345 344 343 343 342 341 341 341 338 337 336 335 334 333 331 331 332 333 333 332 333 330 329 331 331 330 331 329 329 328 327 327 325 328 328 327 328 328 327 328 325 327 327
345 343 342 341 341 339 339 337 336 335 333 332 330 330 330 331 332 333 333 333 331 329 328 330 331 331 330 330 331 329 329 328 329 331 328 327 328 328 326 327 327 327 328
341 341 340 339 338 338 336 335 334 332 331 330 330 330 330 331 332 333 333 330 332 328 329 329 330 330 332 332 331 330 330 329 330 328 325 327 326 326 326 328 326 328 329
337 337 337 336 336 334 333 332 332 331 330 330 330 331 332 333 333 332 333 330 331 329 328 331 331 331 330 331 331 330 329 330 329 327 326 326 326 328 326 328 327 329 328
334 333 333 332 331 332 332 331 331 330 329 330 329 331 333 331 329 329 328 329 327 327 330 331 330 327 327 326 326 327 330 331 328 326 327 328 329 328 328 328 329 328 323
332 332 332 332 332 332 331 330 330 330 329 331 331 331 332 326 326 328 329 329 329 330 329 330 331 329 325 326 326 326 328 329 327 327 329 328 328 329 328 328 327 325 324
332 331 331 331 331 331 331 330 329 331 331 333 332 333 332 325 328 328 328 328 328 329 326 329 330 327 328 326 327 327 330 329 327 326 328 328 328 328 329 328 327 326 324
332 332 330 331 330 329 329 329 330 331 332 332 333 333 331 327 328 328 328 328 327 327 329 331 332 329 327 327 327 327 329 328 325 327 327 327 327 326 327 326 326 324 321
332 331 330 329 330 329 330 329 330 331 332 332 332 330 326 328 328 327 327 327 327 327 328 327 328 326 326 327 327 327 327 325 325 326 326 326 326 326 326 326 326 325 322
331 331 329 328 329 328 328 329 329 330 330 331 332 330 330 328 329 328 327 328 328 327 327 326 326 326 325 327 326 326 327 326 324 325 325 326 325 324 323 323 324 323 321
331 330 329 329 328 330 331 331 330 330 332 332 332 332 329 328 328 327 327 328 327 327 325 325 325 324 324 325 325 324 325 324 323 324 324 323 323 322 323 323 321 321 321
331 331 331 330 331 331 332 332 332 331 331 332 331 331 327 328 328 327 327 325 325 325 324 324 323 323 323 323 323 323 323 324 324 324 323 322 321 322 322 321 321 322 323
330 330 330 330 331 332 332 330 333 331 331 332 331 330 329 329 328 327 326 325 324 324 324 323 323 323 323 323 324 323 323 323 323 323 323 321 321 321 322 323 323 323 323
331 331 332 328 332 333 332 332 332 331 332 331 331 330 328 328 328 326 325 324 323 324 323 323 322 322 322 322 323 323 323 322 322 323 322 322 323 322 323 324 324 322 322
329 331 328 330 330 332 331 329 330 328 331 331 330 330 330 329 328 326 324 325 323 324 323 324 322 322 322 323 325 324 324 323 323 322 324 324 324 325 325 325 324 322 321
330 330 329 329 331 331 331 330 329 327 328 330 329 329 326 327 327 326 325 323 323 325 325 325 325 325 325 325 324 324 326 325 325 325 324 326 326 326 324 323 321 321 320
331 328 329 330 328 331 329 331 331 330 329 326 325 326 328 328 327 326 325 323 323 325 326 326 326 327 327 326 326 327 326 325 327 326 326 326 325 324 323 323 322 322 322
329 328 329 330 330 328 331 330 331 332 330 328 327 328 328 327 327 326 326 325 326 327 326 327 327 327 327 327 328 327 327 326 326 326 325 326 326 326 325 324 322 322 322
328 329 330 330 329 328 329 330 330 331 331 330 330 328 328 327 326 326 326 325 327 328 328 328 327 327 327 328 328 328 326 327 327 327 326 326 325 324 322 322 321 321 322
329 328 330 330 327 329 326 327 329 330 331 331 330 327 326 329 326 325 327 326 328 329 329 329 329 329 329 329 329 328 328 328 327 327 327 327 326 326 325 324 324 324 324
328 326 327 329 328 329 329 328 326 325 326 329 329 323 329 331 330 330 330 330 330 329 329 330 331 330 330 329 329 329 329 329 329 329 328 328 328 328 328 327 327 327 326
329 327 326 327 329 329 329 329 329 328 326 326 330 321 326 331 331 329 329 329 329 330 330 330 330 329 328 328 328 329 330 330 330 330 330 330 330 329 329 329 329 328 328
329 331 330 330 329 328 327 330 331 331 331 330 331 329 328 327 329 331 331 331 330 330 329 330 329 328 328 329 329 329 329 329 329 328 329 329 329 329 329 328 328 328 328
329 329 330 330 330 331 331 331 332 331 332 332 331 330 329 329 330 330 331 330 331 331 332 332 332 332 332 331 331 330 329 328 328 328 329 329 329 328 328 328 328 328 328
326 327 328 328 329 330 330 330 330 329 329 329 330 329 330 329 329 329 329 329 329 329 329 330 330 331 331 331 331 331 331 331 330 330 330 328 328 328 328 328 328 327 326

GFSGL_850_thetae_036.txt.gz
Theta_e
346 346 346 348 348 345 345 345 345 345 342 342 341 338 338 337 335 331 331 332 329 329 328 326 328 327 325 329 328 325 326 326 328 326 327 328 328 328 327 328 322 320 323
345 345 346 345 345 344 344 343 343 342 340 339 338 336 336 334 332 330 330 334 332 329 326 327 329 328 327 329 327 327 326 325 325 326 330 328 328 328 325 327 322 324 324
344 344 343 343 342 342 341 340 339 337 337 336 334 334 332 331 330 331 330 331 332 331 329 328 330 329 328 329 330 328 328 327 325 326 328 330 330 327 328 326 324 324 325
342 342 342 341 340 339 338 337 336 335 334 332 331 331 331 332 332 333 333 331 331 330 329 328 330 330 327 327 328 327 328 327 327 327 328 332 331 329 326 327 328 328 327
341 339 339 337 337 337 336 334 333 332 331 331 331 331 330 330 331 331 331 332 330 330 327 328 330 330 328 328 329 328 328 328 327 330 328 329 328 330 329 327 327 328 329
340 338 336 336 335 335 333 332 331 331 330 330 329 330 331 331 331 329 328 329 328 328 326 328 328 329 328 327 327 327 328 328 329 328 324 329 330 328 328 326 328 329 325
335 335 334 333 332 331 331 331 331 330 329 329 329 330 330 330 326 327 328 330 327 328 329 328 328 327 327 326 327 327 328 330 328 327 327 328 327 329 328 330 325 325 326
332 332 333 331 330 330 330 331 330 329 329 331 331 330 327 324 327 328 328 328 330 330 330 330 330 329 326 325 326 327 329 329 327 327 326 327 327 327 327 327 326 327 324
332 331 331 331 330 330 329 331 328 329 329 328 331 330 326 327 328 328 328 328 328 331 329 328 329 327 326 326 331 328 329 328 328 326 328 328 327 327 327 327 326 325 323
332 332 332 330 328 331 330 328 329 328 328 330 330 330 325 327 327 327 327 327 327 327 329 328 328 328 326 329 328 328 327 327 326 325 327 327 327 327 328 328 326 325 324
332 332 331 328 328 330 328 329 329 330 331 331 329 329 326 328 328 327 327 327 327 327 327 328 327 326 327 328 326 327 327 326 325 326 325 325 326 325 325 326 326 326 325
331 330 330 330 330 328 327 328 328 331 330 331 331 329 327 328 328 328 327 327 327 327 326 326 325 325 326 324 325 325 325 325 325 324 324 324 325 324 325 325 325 325 325
331 330 328 328 328 328 330 329 330 329 329 329 330 329 328 328 327 326 326 326 325 324 325 325 325 324 324 323 324 324 324 325 323 323 323 323 325 324 324 323 324 322 322
331 330 330 331 331 330 332 330 331 331 332 331 330 331 329 328 327 327 324 324 323 324 324 324 324 324 324 323 323 322 323 323 324 324 323 324 323 323 323 321 321 321 322
329 330 330 331 332 332 331 331 331 330 330 330 330 330 330 329 327 325 324 322 324 323 323 323 323 323 323 323 322 323 323 324 324 324 324 323 322 321 321 322 322 322 323
330 331 330 331 333 330 328 330 330 330 331 331 330 331 330 328 326 325 323 323 323 323 322 322 322 322 323 323 323 323 323 323 323 324 323 322 321 322 323 323 324 321 322
330 330 331 332 332 331 330 326 328 331 331 330 330 329 330 327 327 324 323 323 323 325 324 323 322 323 324 327 323 323 323 324 323 323 323 323 323 323 323 323 325 324 321
331 331 329 330 332 331 332 330 327 328 329 329 327 326 327 327 326 324 323 324 325 325 325 324 325 325 325 324 324 325 324 324 323 323 323 324 324 325 326 326 324 323 321
328 328 330 331 331 330 332 331 331 330 328 326 327 328 327 326 325 324 323 324 325 326 325 326 326 327 327 326 327 325 326 325 326 325 325 326 325 325 325 323 323 322 322
327 330 331 329 328 330 330 332 332 331 327 327 327 327 327 326 325 324 325 325 326 326 326 326 326 327 327 328 328 327 327 325 326 324 324 324 326 326 326 325 324 323 323
328 329 331 330 329 329 330 331 332 332 331 331 326 326 326 325 326 326 326 325 327 327 327 328 328 327 327 326 328 328 327 326 325 327 327 326 326 325 324 324 323 323 322
328 329 330 330 328 329 329 329 330 332 331 326 326 329 330 330 327 328 328 328 329 330 330 330 330 329 329 329 329 329 328 327 326 327 327 327 327 326 326 326 326 325 324
327 325 327 329 329 329 327 327 327 332 331 326 325 330 331 330 330 330 330 330 330 330 330 330 331 331 330 329 329 329 329 329 329 329 329 329 329 328 328 328 328 328 328
329 330 330 330 330 330 330 330 330 330 331 328 327 329 329 330 330 330 330 330 329 330 330 330 330 329 329 329 328 328 328 328 328 329 330 331 328 326 328 329 329 329 328
329 330 330 329 328 329 330 330 330 331 330 329 328 328 328 329 330 330 330 330 331 331 330 330 331 330 330 329 329 329 329 328 328 328 328 329 329 329 329 329 329 329 328
326 328 329 328 328 329 329 329 329 329 329 328 327 326 326 326 326 328 329 329 329 329 330 329 328 329 328 329 330 328 329 329 330 328 328 328 328 328 327 328 328 328 328

GFSGL_850_thetae_039.txt.gz
Theta_e
334 342 344 343 343 349 350 348 345 340 340 340 341 340 340 338 339 335 333 332 331 330 329 328 326 326 326 326 328 327 325 326 326 327 327 328 325 325 327 325 327 321 321
345 344 343 346 349 349 345 342 343 342 342 340 342 341 339 338 336 333 330 331 332 330 328 327 326 328 326 327 328 326 325 327 326 326 327 328 328 328 327 327 322 318 323
343 345 346 346 346 345 343 342 343 343 342 341 338 337 335 331 328 326 328 331 333 332 330 328 328 328 326 329 327 327 327 325 326 327 328 327 327 327 326 327 320 325 322
344 344 344 344 342 341 342 343 341 338 337 336 333 330 329 329 330 330 331 330 330 330 330 329 328 329 328 328 328 328 327 326 327 327 327 327 327 326 326 327 321 324 323
343 342 341 340 339 339 339 337 337 336 334 331 330 330 330 330 330 333 332 331 331 330 330 327 328 329 328 327 327 327 327 327 326 326 327 330 328 329 326 324 322 325 325
340 340 339 338 338 337 336 333 333 331 330 330 332 330 329 328 330 330 329 328 329 329 328 327 327 328 328 327 327 327 327 327 327 328 328 326 327 327 325 325 327 326 325
338 337 336 335 334 331 330 330 330 331 330 331 329 327 328 330 330 327 328 329 326 327 327 327 327 327 327 327 328 327 328 329 329 328 327 328 327 325 329 327 327 324 325
336 334 333 331 330 329 329 330 330 329 328 328 328 328 329 326 325 327 328 329 326 328 328 327 328 327 327 326 327 327 329 329 327 326 325 324 326 327 327 326 326 326 326
334 333 330 330 330 329 330 330 329 328 328 328 329 328 325 326 327 328 328 328 328 327 328 329 329 327 326 325 325 327 327 325 326 325 325 324 325 325 325 326 326 325 325
331 331 330 330 329 329 330 330 328 328 328 328 328 328 326 327 327 328 326 327 328 330 329 328 328 327 324 325 325 326 328 327 327 326 326 326 325 325 325 326 325 324 324
330 329 329 329 328 328 329 327 328 327 327 329 328 326 327 327 327 327 326 327 327 327 328 327 329 327 327 328 329 327 327 327 325 327 325 326 326 326 326 326 326 325 325
330 329 328 329 329 329 327 328 327 329 330 330 328 324 327 328 328 327 326 326 327 327 328 327 326 326 326 326 326 325 325 324 325 324 327 325 326 326 326 326 326 325 324
330 330 328 328 329 327 326 327 328 331 330 330 328 328 326 327 327 326 326 326 325 325 325 325 325 324 324 324 324 324 323 323 324 323 324 324 325 325 324 325 325 325 323
329 330 329 328 328 328 328 328 329 329 329 329 329 329 327 327 326 324 324 323 323 324 324 324 324 324 323 323 323 323 323 322 323 323 324 324 323 323 324 324 325 324 323
329 328 329 329 330 330 329 329 330 330 331 330 330 330 329 327 326 324 323 322 323 324 324 324 324 324 323 322 322 322 322 322 322 323 323 323 323 324 323 324 323 322 322
329 328 330 331 331 331 330 330 330 330 330 330 330 329 327 327 324 323 322 323 323 322 323 323 323 323 322 321 321 322 323 323 324 323 323 323 324 322 322 321 321 321 322
327 330 331 330 329 327 327 329 330 330 331 330 330 329 329 327 324 323 323 322 322 322 321 322 323 323 323 323 322 323 323 323 324 324 323 322 321 322 322 323 323 321 321
330 330 330 330 330 329 326 327 330 330 330 330 329 330 327 326 323 323 323 324 323 323 322 323 323 324 325 323 323 323 323 323 323 323 322 322 322 323 323 323 323 322 322
331 331 331 331 331 331 328 327 328 329 329 328 327 327 326 325 323 323 324 325 325 324 324 325 325 325 324 324 324 323 323 323 323 323 323 323 323 324 324 324 324 323 321
330 330 331 330 330 330 331 330 330 327 325 326 327 326 325 323 323 324 325 325 326 325 325 326 327 327 326 327 326 326 325 325 324 323 324 324 324 324 324 325 325 323 323
329 329 330 331 330 331 332 330 329 326 326 327 326 326 326 325 323 323 323 324 325 325 326 326 326 327 327 327 327 326 325 324 323 324 323 323 324 325 326 326 325 324 323
329 329 330 331 330 330 331 330 329 328 326 326 325 325 325 325 325 325 325 326 328 328 327 327 327 327 327 328 328 328 328 327 326 326 327 327 326 326 326 325 325 325 325
330 328 330 329 330 331 331 332 331 331 327 326 327 326 327 327 327 328 328 327 328 329 330 329 329 329 329 329 329 329 328 328 328 327 328 327 327 328 328 328 328 328 328
328 327 329 328 329 330 330 332 331 329 328 329 328 328 329 329 328 329 330 329 329 330 329 329 330 330 330 330 329 329 329 328 329 329 329 329 328 330 329 330 330 330 329
329 328 327 329 328 329 330 332 330 328 329 329 328 327 328 328 327 327 327 327 326 327 327 327 326 327 327 328 328 328 328 328 328 328 327 327 327 328 327 327 328 328 327
328 328 328 328 329 329 330 330 328 327 328 327 326 326 325 326 327 326 325 325 325 325 324 325 325 324 324 324 324 326 327 328 328 328 328 327 327 327 328 328 328 328 327

GFSGL_850_thetae_042.txt.gz
Theta_e
323 324 326 326 331 333 332 330 331 341 347 345 342 339 338 338 338 339 340 338 335 332 331 329 328 329 328 328 325 328 327 326 327 327 327 327 327 327 326 326 328 327 319
326 328 330 331 336 340 341 347 346 347 345 340 339 339 339 338 338 339 334 332 332 329 329 329 328 326 326 325 326 326 325 324 325 326 327 326 326 325 326 327 326 326 320
332 334 340 344 341 344 350 347 342 340 341 340 341 340 341 338 337 335 331 329 330 331 331 329 327 326 328 325 327 327 327 326 326 326 328 326 326 326 327 326 326 320 324
343 343 342 341 343 349 344 341 342 342 341 341 341 339 337 332 328 326 327 328 329 331 331 330 328 328 328 325 328 327 328 325 326 327 328 327 328 327 327 325 320 324 324
340 342 343 344 346 343 342 343 342 340 338 335 330 329 328 329 330 330 331 332 331 331 331 330 329 328 328 327 328 329 327 326 327 328 327 326 327 324 327 325 322 323 324
342 343 345 344 343 342 342 339 337 336 334 332 329 329 330 330 330 331 331 329 328 330 330 330 328 328 328 327 327 327 327 326 326 326 327 326 327 327 325 325 321 325 325
342 341 340 340 338 339 337 336 335 334 331 329 330 330 328 329 330 330 330 328 328 328 329 328 328 325 327 327 327 328 328 327 326 325 326 327 327 328 326 322 322 324 325
339 338 338 337 336 334 331 327 328 329 329 331 329 327 328 329 330 326 326 328 327 327 327 327 327 327 327 327 327 327 328 328 328 327 327 325 324 325 323 323 325 325 323
337 336 334 331 329 328 328 329 329 329 330 329 328 328 328 324 324 327 328 328 327 328 328 327 325 327 327 327 327 327 328 329 328 327 326 327 325 324 326 324 325 323 324
333 332 330 328 328 327 329 329 328 328 328 328 329 328 324 325 327 328 328 328 328 327 328 328 328 327 326 326 326 326 327 326 324 324 324 324 325 325 324 326 325 324 323
332 329 329 329 328 329 330 328 328 328 328 328 328 326 326 326 327 327 326 327 328 327 327 328 328 328 327 325 326 326 325 325 326 325 324 324 323 322 323 324 325 324 325
330 330 329 328 328 328 330 328 328 328 327 328 328 325 326 327 327 327 326 327 327 327 327 326 326 326 325 326 326 326 326 325 325 325 323 323 324 323 323 324 324 324 324
328 328 329 328 327 327 327 328 327 327 329 328 326 323 327 327 327 326 325 325 326 327 327 327 326 325 325 325 325 324 325 323 324 324 323 323 324 326 326 325 326 326 324
327 327 328 328 327 326 327 327 328 330 329 329 327 327 326 327 326 324 324 324 325 325 325 325 324 323 322 323 324 323 322 322 323 323 323 324 325 325 324 325 324 325 323
328 328 329 328 327 327 327 328 328 328 328 328 328 329 328 326 325 323 323 323 322 323 324 324 324 323 322 321 322 322 321 322 322 322 323 323 323 324 324 324 324 324 324
329 329 329 328 328 328 328 329 329 329 330 330 330 330 327 326 323 322 322 323 323 324 324 323 323 323 322 321 321 322 322 321 321 322 323 322 322 323 323 324 324 324 323
328 328 329 330 330 330 329 328 329 331 331 330 330 328 327 324 322 322 323 322 322 323 323 324 324 322 321 320 320 321 322 322 323 323 322 322 323 323 322 324 322 321 321
329 330 330 330 330 329 327 330 330 330 330 330 329 328 325 323 323 322 322 321 322 322 322 323 323 322 322 322 322 323 323 323 323 323 323 324 323 321 321 322 322 322 321
330 330 330 328 328 327 328 330 330 330 330 328 328 326 324 323 323 323 323 322 323 323 324 324 324 324 323 323 323 323 323 323 323 323 322 322 323 323 322 322 322 322 322
330 330 330 330 329 326 329 330 329 329 329 328 327 326 323 323 324 324 325 325 324 324 325 326 326 325 324 324 324 323 323 323 323 323 322 322 322 323 323 323 324 323 324
330 330 330 329 330 329 328 328 328 328 326 326 326 325 323 323 324 325 326 326 326 326 326 326 327 327 326 326 326 326 325 324 323 323 323 322 322 324 325 325 324 323 324
329 330 330 329 329 330 330 329 325 326 327 326 325 324 323 323 324 324 325 326 327 327 326 327 327 327 327 327 327 327 327 327 326 326 326 326 326 326 326 326 325 325 324
329 329 330 330 329 329 329 327 326 326 325 325 325 324 324 323 324 325 325 326 327 328 327 327 327 327 327 327 327 328 327 327 327 327 327 327 327 327 327 327 327 327 327
329 329 330 330 329 328 329 329 327 325 325 326 326 326 326 326 326 326 327 327 328 328 329 328 328 328 328 328 328 328 328 328 328 327 327 327 328 327 327 327 327 328 328
329 329 327 329 329 329 329 328 326 327 327 326 327 328 328 328 329 328 327 328 328 326 327 327 327 327 326 326 327 327 327 327 327 327 327 326 326 326 326 326 326 326 326
328 328 326 325 328 330 329 328 327 328 327 325 326 327 327 326 326 325 324 323 323 323 323 323 323 322 322 323 323 324 325 326 326 326 325 325 326 325 324 322 321 320 318

GFSGL_850_thetae_045.txt.gz
Theta_e
322 322 322 323 323 324 327 328 331 333 330 335 343 345 344 339 338 337 337 337 339 336 336 333 331 330 330 330 330 327 326 328 327 326 326 326 326 328 326 326 327 326 319
323 323 322 322 325 327 326 332 334 331 331 338 345 343 340 337 337 336 337 339 338 335 331 329 328 328 328 328 327 326 325 325 325 326 327 327 328 326 327 328 327 326 321
324 323 324 327 326 329 332 334 336 342 343 342 342 339 337 337 338 338 338 335 332 331 328 328 328 328 326 326 326 327 325 325 327 326 326 326 326 326 325 327 326 326 319
326 324 326 329 332 340 340 342 345 343 344 341 338 339 338 338 338 336 332 331 328 328 330 330 328 327 326 328 325 327 326 325 325 326 327 325 325 325 326 326 327 320 321
327 327 329 337 342 339 343 344 341 340 340 340 341 340 339 336 331 327 327 326 327 328 329 330 330 329 328 328 326 327 327 326 326 327 328 327 327 328 327 326 320 322 323
334 340 342 342 340 341 341 341 342 341 341 339 335 331 330 328 328 329 329 330 330 330 331 331 330 329 328 328 326 328 327 326 326 327 328 326 326 327 327 324 319 324 324
337 337 338 341 342 341 342 341 340 338 334 331 326 328 328 329 329 329 329 330 329 328 329 329 329 329 328 327 328 328 327 327 326 326 327 326 326 323 325 325 322 324 324
336 336 342 340 342 342 340 338 336 333 327 325 328 329 329 328 328 330 330 328 327 328 327 328 329 327 326 327 327 327 327 327 327 326 326 325 324 324 323 326 321 323 323
336 338 340 340 339 337 336 334 333 331 327 329 330 327 327 328 329 327 325 327 328 326 327 327 328 326 327 327 326 326 327 328 327 327 326 326 326 324 323 323 322 323 324
338 338 338 337 336 333 329 326 327 328 330 329 328 328 328 325 324 326 327 328 327 327 327 327 325 325 326 326 327 326 327 328 328 328 327 325 324 325 324 322 322 323 322
337 336 332 330 328 327 325 328 329 330 329 328 328 328 325 325 326 327 327 328 328 328 327 327 327 327 326 326 327 326 327 327 325 324 325 324 322 323 322 324 324 323 323
332 330 328 327 326 327 329 328 327 328 328 328 328 326 325 326 327 326 326 327 327 326 328 328 326 327 325 325 327 326 325 323 324 324 323 322 322 322 321 322 323 323 324
329 328 328 327 327 329 328 328 328 328 328 328 327 325 326 326 326 326 325 326 327 327 326 325 325 324 325 325 325 325 325 323 324 324 323 323 323 322 322 323 323 324 324
328 328 327 327 328 329 328 327 327 327 328 328 325 323 326 327 325 325 325 325 327 327 327 326 324 324 324 324 324 324 323 323 322 322 323 323 323 323 324 324 324 324 324
329 329 328 327 327 328 326 327 326 327 328 329 326 328 326 327 324 324 324 324 324 325 325 325 324 323 323 323 324 323 322 322 322 322 323 323 324 325 325 324 324 324 324
328 328 328 326 326 326 327 327 329 329 329 329 329 329 326 325 323 323 322 322 322 322 325 324 323 322 322 322 322 321 321 321 322 322 323 323 324 324 324 324 324 324 323
327 328 329 327 326 326 327 327 328 329 329 330 330 327 326 323 322 322 322 322 324 324 325 324 323 322 321 321 320 320 319 320 320 321 323 322 322 323 323 323 324 324 324
327 328 329 327 327 328 328 328 329 329 331 330 327 326 323 322 322 321 321 322 323 323 323 324 323 322 320 320 320 321 322 322 322 323 322 322 322 323 323 324 324 322 322
328 328 328 329 330 330 329 329 329 329 329 327 325 323 322 322 321 321 321 322 322 323 323 323 322 322 322 321 322 322 323 323 323 323 323 323 323 322 322 321 321 321 321
330 330 329 329 329 328 328 330 330 329 329 326 325 322 322 322 322 323 323 322 323 324 324 325 325 324 323 323 323 323 323 323 323 323 323 322 322 322 322 322 322 322 322
329 329 329 329 327 328 329 330 330 329 327 326 325 322 323 323 323 325 326 326 326 325 326 326 325 325 324 325 324 323 323 323 323 322 322 322 322 322 322 322 323 324 324
329 330 329 329 326 329 329 329 329 329 328 326 324 322 323 324 323 323 324 325 326 326 326 326 326 326 326 326 326 326 325 324 323 323 323 323 323 324 324 325 327 326 326
329 329 329 329 329 329 327 326 326 326 326 325 323 322 323 324 324 324 325 326 327 326 327 327 326 327 327 326 326 326 326 326 327 326 326 326 326 326 326 327 327 327 326
328 329 328 329 328 328 325 326 326 325 323 322 322 322 323 323 323 324 325 326 327 327 327 327 327 327 327 327 327 327 327 327 327 326 326 326 326 326 326 326 326 327 326
329 329 328 328 326 325 326 326 324 324 324 324 323 323 323 323 324 325 326 327 326 326 326 326 326 325 325 326 326 326 325 326 326 325 325 325 326 325 325 325 324 324 324
329 329 328 328 328 327 326 325 324 325 325 325 325 325 325 325 324 323 323 322 322 322 322 322 321 320 320 321 320 321 322 323 322 322 320 319 319 317 315 314 314 313 314

GFSGL_850_thetae_048.txt.gz
Theta_e
315 318 322 321 321 322 326 331 328 326 325 328 329 332 341 344 344 341 336 336 336 337 336 335 335 334 333 331 331 330 330 325 327 327 326 327 326 326 326 326 327 327 326
316 318 325 322 321 322 325 328 327 324 328 331 329 336 344 344 341 337 337 335 336 338 334 335 332 330 328 328 328 328 325 327 325 326 326 326 325 328 326 327 327 327 323
319 322 323 322 322 322 323 325 325 329 332 331 333 341 339 340 337 336 336 336 338 336 334 331 328 327 327 327 326 325 326 325 324 326 326 326 327 327 328 327 326 325 320
321 327 323 322 322 322 324 329 331 333 332 331 341 338 339 337 337 336 337 338 334 330 330 328 327 327 327 326 326 325 326 326 325 326 326 328 327 325 325 327 326 324 320
330 328 324 323 326 328 330 335 337 338 339 340 338 340 337 337 337 338 334 331 329 327 328 330 330 328 328 326 328 325 327 327 325 326 327 326 326 325 326 326 326 320 321
331 328 327 330 332 337 340 340 342 343 342 342 339 337 339 338 336 328 325 327 327 328 329 329 330 330 329 328 328 327 326 327 325 326 327 326 325 325 326 325 324 321 324
331 328 330 333 340 340 339 340 341 340 339 340 340 339 336 330 327 327 328 330 330 329 328 330 330 330 329 328 327 327 328 327 326 326 327 327 327 326 325 325 320 323 322
335 332 337 341 341 339 339 340 340 340 339 334 331 329 327 328 328 329 329 330 330 328 328 329 329 329 328 328 327 327 327 327 326 326 327 326 325 326 324 324 320 321 323
337 338 336 337 339 338 340 339 337 333 331 327 326 328 329 328 328 329 330 328 326 327 326 327 328 329 328 327 326 326 327 327 327 326 326 325 325 324 323 324 322 322 325
335 336 336 336 337 338 338 337 332 328 325 327 329 328 327 328 328 328 325 327 328 327 326 327 327 326 325 325 326 326 326 327 327 326 325 325 325 324 323 324 322 321 322
335 336 336 337 336 338 336 334 330 326 328 329 327 327 327 325 324 326 327 328 327 327 327 326 325 325 326 327 327 327 327 327 328 327 326 324 323 322 322 322 322 321 322
334 336 335 336 335 333 328 328 327 328 329 328 327 327 325 325 326 327 327 327 328 327 327 327 327 327 326 327 327 327 327 326 326 324 325 324 323 321 321 322 323 323 323
326 334 333 328 326 325 325 328 329 327 328 327 327 325 324 326 326 326 326 327 327 327 328 327 326 325 325 324 324 324 323 323 323 323 322 322 321 321 321 322 324 324 323
329 330 327 325 326 327 327 326 327 327 327 327 327 325 324 325 325 325 325 326 327 327 325 324 324 324 324 324 324 324 323 322 322 322 322 322 322 322 321 321 322 323 324
328 327 326 326 328 328 327 327 326 327 327 326 324 323 325 326 325 324 324 325 326 327 326 325 324 324 324 323 323 323 323 322 323 322 323 323 323 323 323 322 323 323 323
327 326 327 328 329 328 326 327 327 328 328 328 328 327 326 325 323 324 324 324 324 325 325 325 324 322 322 322 323 322 322 322 322 322 322 323 323 324 324 324 324 324 324
328 327 328 327 328 326 326 326 329 329 329 329 328 326 324 322 322 321 321 322 322 323 325 324 323 322 321 322 322 321 321 321 322 322 322 322 323 324 324 323 324 324 323
328 327 325 326 326 326 326 328 329 328 329 328 326 323 321 320 320 321 322 323 323 323 324 323 322 322 321 320 320 320 320 320 321 321 322 322 322 323 323 323 323 324 324
327 327 326 326 326 326 327 328 328 329 329 326 323 321 320 321 321 321 322 322 323 323 323 323 322 320 320 320 320 321 321 321 322 322 323 322 322 323 323 323 323 321 321
328 328 327 327 327 327 328 328 329 330 326 324 322 321 320 320 322 322 322 323 323 323 323 323 323 322 322 322 322 322 323 323 323 322 323 323 323 322 321 321 321 320 320
328 328 329 329 329 329 329 329 329 328 325 322 321 321 323 323 324 324 324 325 325 325 324 324 324 324 323 323 323 323 322 323 323 323 323 322 322 322 322 322 322 323 323
329 328 328 327 328 329 329 329 329 326 324 322 322 322 322 323 325 325 325 326 326 326 326 325 325 324 324 325 324 324 323 323 322 322 322 322 322 322 322 323 323 324 325
329 329 327 328 329 329 329 329 327 326 324 322 323 323 323 322 323 324 325 326 326 326 326 326 326 326 325 325 325 325 325 324 324 324 324 324 325 325 325 326 326 326 326
329 328 327 328 328 328 328 328 328 325 323 322 323 323 323 322 323 325 325 326 326 326 326 326 326 326 326 325 325 326 325 325 326 326 326 325 325 325 325 325 325 325 325
328 328 328 328 326 325 325 326 324 323 323 322 322 323 323 323 323 323 324 324 324 323 323 324 324 324 325 325 325 325 325 325 325 324 325 325 325 324 325 324 322 320 318
328 328 327 326 325 325 325 325 323 322 321 321 321 322 322 322 322 323 323 322 321 321 320 321 320 319 319 320 320 320 321 321 321 320 320 319 319 316 311 312 313 312 306

GFSGL_850_thetae_054.txt.gz
Theta_e
318 320 320 315 313 314 316 318 320 323 324 324 325 334 336 332 328 327 329 342 338 346 344 341 338 337 339 339 338 337 337 335 332 333 331 326 325 329 328 328 328 329 327
317 318 319 322 318 317 315 317 321 321 323 326 334 335 338 333 328 327 330 346 347 346 343 338 339 339 337 337 337 337 333 333 331 333 329 329 328 326 326 325 327 327 330
320 319 319 322 322 316 314 316 322 322 323 326 338 341 340 339 336 340 345 346 347 344 341 340 340 338 337 337 335 333 332 333 331 331 331 328 327 326 327 327 327 327 328
321 320 320 323 327 327 314 317 322 323 330 331 339 341 340 342 345 346 346 345 341 341 338 336 337 338 337 335 334 333 333 332 331 331 331 328 327 327 328 328 328 328 326
323 322 322 324 327 331 333 322 324 329 332 338 341 341 342 345 344 345 343 339 337 337 335 336 337 336 334 333 332 333 333 331 331 331 328 327 327 329 327 328 328 327 325
322 324 325 327 329 331 336 332 334 337 339 340 342 343 345 343 343 339 338 340 340 338 337 337 336 329 327 328 329 330 332 332 332 331 328 329 326 328 330 326 327 327 324
320 323 326 328 331 333 336 336 338 340 342 343 344 344 345 343 339 337 337 338 338 337 337 336 334 332 328 329 327 328 326 327 328 331 329 327 329 327 327 327 327 328 327
321 323 326 328 333 336 337 339 341 343 344 344 343 343 344 337 338 337 337 337 335 335 334 334 333 334 331 333 329 328 327 327 327 328 329 328 326 328 327 326 327 327 326
320 324 327 331 337 338 339 341 343 342 342 342 342 341 339 338 338 337 329 334 334 335 334 334 334 333 333 330 332 331 331 330 327 327 329 327 327 326 326 326 326 325 326
320 325 329 334 337 338 341 344 345 342 339 341 340 338 338 337 332 327 331 332 334 334 333 333 329 334 330 330 331 331 331 329 327 326 327 326 325 326 326 326 326 326 325
322 327 330 334 338 339 343 344 341 339 340 337 338 338 335 329 328 329 329 334 333 331 331 331 329 328 329 328 328 328 330 328 328 328 327 326 325 324 324 325 325 325 325
323 327 333 337 338 341 339 338 340 338 338 337 336 330 329 329 329 329 329 331 331 331 331 331 328 327 327 328 327 326 325 327 329 329 328 327 327 327 325 324 325 325 326
327 330 336 337 339 339 338 338 337 336 334 331 331 331 329 329 328 327 326 327 328 332 329 326 326 325 326 324 324 324 326 327 329 328 327 326 325 326 325 325 325 325 325
330 334 336 336 336 336 334 335 333 330 330 330 330 330 328 328 326 327 328 328 328 328 327 326 327 327 327 327 327 327 327 326 327 327 326 325 324 323 324 324 324 324 326
332 333 334 334 333 332 332 330 328 330 330 330 330 330 329 328 329 329 329 327 327 328 327 327 326 325 325 325 326 326 327 324 324 324 324 324 323 323 323 322 323 323 324
332 331 332 331 330 328 328 330 330 330 330 330 329 329 328 328 327 326 328 327 328 327 326 326 324 326 325 325 325 323 324 323 323 323 325 324 323 322 322 322 322 323 323
332 330 330 328 329 329 329 329 327 327 327 326 325 325 325 325 325 325 325 327 327 326 325 324 325 324 324 324 324 323 323 323 323 322 323 323 323 323 323 323 323 323 323
330 329 329 329 330 329 328 327 326 326 326 325 324 324 324 324 324 324 325 325 326 325 325 324 324 324 323 323 323 322 322 322 322 323 323 323 323 323 324 324 323 324 323
328 328 328 329 329 329 329 326 326 327 325 324 324 324 324 324 323 323 323 324 324 325 325 323 323 322 322 322 321 321 321 321 322 322 323 323 323 323 323 324 323 324 324
329 329 329 330 329 329 326 325 327 325 323 321 321 321 321 321 322 322 323 323 324 324 323 323 323 322 321 321 323 323 322 323 323 325 324 323 323 323 323 324 323 322 323
330 329 329 329 330 328 326 324 325 324 321 320 322 321 322 322 322 322 323 323 322 323 323 322 322 321 323 323 324 323 322 322 322 322 322 322 323 324 324 324 325 325 325
328 328 329 329 328 326 325 325 324 323 321 321 321 321 322 322 322 322 322 322 322 322 322 322 321 321 322 323 323 322 323 323 323 323 324 324 324 323 324 326 327 326 326
329 329 329 327 327 327 328 326 323 321 321 322 323 323 323 323 323 323 323 323 323 323 323 323 323 323 323 323 323 324 323 323 323 323 325 324 324 324 323 323 324 324 326
328 327 328 328 328 328 327 323 322 320 322 323 324 325 325 325 325 325 324 323 324 324 323 324 324 324 325 324 324 323 323 323 323 323 324 323 323 324 324 324 323 323 323
328 328 327 327 327 326 324 323 321 321 323 323 324 324 324 325 324 325 324 324 324 323 324 325 325 324 324 324 325 325 325 325 325 325 325 324 324 323 321 317 319 317 313
327 327 327 327 327 325 326 323 322 321 323 323 323 323 323 324 324 323 322 322 322 322 321 321 322 322 322 322 322 322 322 322 322 322 322 321 319 316 313 309 302 298 297

GFSGL_850_thetae_057.txt.gz
Theta_e
318 319 319 320 322 323 323 325 326 319 321 339 335 333 331 328 330 340 342 342 340 344 345 347 346 346 346 342 340 340 337 336 336 335 335 334 329 328 329 330 329 330 327
318 319 319 319 320 321 323 325 318 322 326 330 339 342 344 334 344 341 333 342 348 347 348 348 346 346 338 342 340 338 337 336 335 333 335 332 330 330 328 327 328 329 331
318 320 320 321 321 320 322 322 321 328 335 338 342 342 344 347 347 345 336 345 348 348 347 346 344 342 342 339 340 337 336 335 334 333 334 331 331 328 326 328 328 329 328
319 319 320 322 322 322 323 324 324 330 334 338 340 343 345 346 346 347 347 346 348 347 345 345 342 343 342 340 338 337 334 333 332 333 332 331 328 328 328 328 328 329 329
319 319 321 323 323 323 324 326 329 332 335 338 340 343 344 344 344 347 347 347 347 347 344 344 343 341 340 337 336 333 332 334 332 332 332 331 331 327 328 328 327 328 327
319 320 321 322 323 324 325 325 328 334 335 338 338 341 343 342 343 345 347 347 346 345 344 341 341 338 336 335 331 333 334 330 333 330 332 330 329 327 328 328 329 328 328
319 319 319 321 323 324 326 328 330 335 336 338 339 341 342 343 344 344 345 345 344 342 342 339 338 337 335 330 327 331 331 329 330 332 331 331 329 329 329 328 328 329 328
317 318 317 320 322 324 326 327 332 336 338 341 342 342 344 346 344 343 341 343 342 341 339 338 338 336 332 333 331 327 327 327 326 329 329 330 329 328 328 328 328 329 328
317 317 317 319 322 325 326 328 335 337 340 343 344 345 347 344 342 340 338 340 340 339 337 336 335 335 336 333 333 331 332 331 328 327 329 329 327 327 328 327 328 329 328
316 316 318 319 323 326 328 331 336 338 342 343 343 347 344 342 339 338 337 337 337 335 335 335 334 335 334 332 330 332 332 331 329 327 328 327 326 326 326 328 328 328 327
316 317 319 320 324 330 330 336 336 340 342 342 344 343 341 338 338 337 335 334 335 335 335 334 334 332 332 331 331 332 331 329 330 330 331 327 326 327 326 327 327 328 327
317 318 318 321 327 330 335 336 338 339 340 343 341 339 337 338 337 330 329 334 332 333 332 332 332 328 329 329 330 330 329 329 329 330 329 330 329 327 327 327 326 326 327
317 318 320 324 329 333 337 336 337 339 342 339 339 337 336 333 328 328 329 330 332 332 331 331 330 328 329 328 328 328 327 327 328 329 328 328 328 326 325 327 326 326 326
316 319 323 329 331 336 335 338 339 339 338 339 337 335 333 332 330 330 329 329 329 332 331 329 326 326 326 326 325 324 325 325 327 328 328 327 327 326 326 327 327 326 327
320 322 329 332 336 337 338 338 338 337 336 334 333 332 332 331 331 330 328 330 330 330 327 326 326 327 327 326 326 327 327 326 327 328 326 326 326 326 327 326 326 327 327
321 329 333 334 335 336 335 334 333 333 332 332 332 331 330 330 330 329 329 330 330 328 328 329 328 328 329 327 328 328 327 326 327 327 326 325 325 325 326 325 325 326 327
325 333 334 334 333 332 331 331 331 331 331 330 330 330 330 330 328 328 327 327 327 327 329 329 329 329 328 328 327 326 327 326 325 326 326 326 325 326 324 325 326 326 326
332 332 333 333 331 330 329 329 330 330 330 329 329 329 329 327 327 327 327 327 327 328 327 328 327 328 327 327 327 326 326 326 326 325 326 326 325 324 325 324 323 325 323
331 331 331 330 329 330 330 329 329 329 326 327 325 325 325 325 325 326 327 326 327 326 326 327 326 326 325 324 324 325 324 324 323 325 324 326 324 325 324 325 324 324 324
330 329 328 328 329 329 329 329 327 323 324 324 324 325 325 325 325 325 325 326 325 325 324 326 324 324 323 324 324 323 323 322 323 324 325 324 324 325 323 325 325 326 324
327 328 330 330 329 329 328 327 326 326 324 323 324 323 323 322 322 322 324 324 324 324 324 323 324 323 322 323 323 324 324 325 326 326 325 324 323 323 323 323 324 324 325
330 331 331 329 329 328 328 326 324 323 322 321 321 321 321 321 323 322 323 323 323 323 322 322 322 323 324 325 324 324 323 325 324 324 325 323 323 325 325 325 325 326 326
330 330 330 329 328 327 325 324 323 321 321 322 322 321 321 322 323 323 322 323 323 322 321 321 321 322 322 323 324 324 324 324 325 325 325 325 325 325 325 324 324 324 324
329 330 329 328 327 326 325 323 322 319 320 321 322 322 322 322 322 322 322 321 321 320 321 323 323 323 323 323 323 323 324 324 323 325 325 323 322 322 323 322 321 319 314
329 329 329 327 325 325 323 321 318 321 322 322 322 323 322 323 323 323 322 322 321 322 323 323 324 323 323 324 323 324 324 324 324 325 325 324 324 323 318 319 318 314 310
330 329 329 327 324 323 321 320 320 320 322 323 323 323 323 324 323 322 322 322 322 323 323 322 323 323 324 324 324 323 323 323 323 323 323 323 320 314 309 304 302 300 300

GFSGL_850_thetae_060.txt.gz
Theta_e
316 316 317 318 320 320 322 322 315 313 314 316 318 329 340 349 346 342 337 344 347 350 342 337 339 339 339 346 344 342 339 339 338 336 336 335 334 332 330 327 327 329 329
317 316 317 317 319 320 321 320 324 322 314 316 316 319 330 338 346 342 339 342 349 347 340 341 343 343 344 346 344 341 340 338 336 335 335 334 333 331 329 328 327 328 329
318 319 318 318 320 321 321 321 320 319 316 316 320 329 339 346 343 343 344 347 349 343 343 342 344 344 344 344 339 340 339 336 336 335 334 333 331 329 328 326 329 328 329
316 319 318 319 320 320 322 324 323 320 319 321 327 334 340 342 346 347 348 348 344 348 346 345 345 345 343 341 341 339 336 336 335 332 332 332 331 330 326 328 328 329 329
314 318 321 320 320 320 320 324 323 323 325 325 323 335 338 344 345 349 349 346 344 348 347 345 344 343 341 341 339 337 336 334 334 333 332 331 330 330 326 328 328 329 329
318 318 319 321 319 321 322 325 324 323 324 330 334 336 338 340 346 348 346 348 347 348 346 345 344 342 341 340 337 336 332 333 334 332 332 332 330 329 328 328 328 328 328
315 318 319 319 320 319 321 323 326 328 329 323 333 336 338 342 346 346 345 346 347 348 345 345 342 342 341 339 336 334 333 333 331 330 331 332 329 329 328 329 328 328 329
313 314 316 318 318 319 319 322 323 325 326 333 328 338 337 342 344 343 344 344 347 343 343 341 340 339 338 336 334 330 331 331 328 330 327 330 331 329 329 329 328 328 329
313 314 315 315 317 319 318 320 323 324 328 329 335 338 336 342 344 344 344 346 343 342 342 340 338 336 336 334 329 328 327 327 328 326 327 329 329 329 329 328 329 329 328
313 313 315 316 317 318 318 320 322 325 330 327 336 337 341 342 344 344 344 344 341 339 337 336 336 335 335 335 333 333 330 330 330 328 327 328 327 326 327 328 328 328 327
313 313 314 316 318 317 318 320 325 326 328 328 337 339 342 342 342 341 341 340 337 336 335 336 335 335 334 334 333 332 331 331 331 327 327 327 326 326 326 327 327 328 328
313 313 315 317 317 317 320 320 322 327 326 333 339 341 342 341 339 338 338 337 336 335 334 333 332 332 333 332 332 331 331 331 330 328 329 328 329 327 326 326 327 327 328
313 314 315 317 317 318 318 323 324 327 332 338 339 342 341 339 338 337 336 335 334 332 333 333 332 331 329 329 329 331 330 329 328 328 329 329 329 328 325 326 326 326 326
312 315 316 315 317 318 318 321 325 332 335 337 340 339 337 338 337 335 334 333 332 332 331 331 330 328 328 329 329 329 328 327 327 327 328 328 328 327 325 326 326 326 326
313 315 315 315 315 316 319 323 329 335 336 340 339 338 336 337 334 330 329 331 332 331 331 331 326 326 326 327 327 326 325 325 325 327 328 328 327 326 326 325 327 327 327
315 315 316 316 318 321 327 330 333 334 338 338 337 335 334 332 329 328 329 329 328 329 331 327 325 327 327 326 325 325 327 326 325 327 327 325 325 325 325 324 324 325 326
317 318 317 318 322 327 329 329 334 336 336 335 334 333 332 331 329 328 329 330 328 328 327 327 328 328 327 327 328 327 327 326 326 325 325 325 325 325 325 324 324 325 325
320 321 322 328 325 323 328 328 333 333 332 332 331 330 330 330 329 328 329 329 328 329 329 328 328 328 327 327 327 326 327 326 324 326 326 326 326 325 325 325 325 325 325
321 323 330 331 331 331 331 330 330 330 330 330 330 330 329 329 328 327 327 327 327 328 328 328 328 327 327 326 326 325 325 325 325 324 325 325 324 323 324 325 326 324 324
324 332 332 331 331 331 330 330 330 329 329 328 328 328 327 327 327 327 327 327 327 327 327 327 327 326 325 324 324 323 323 323 324 324 324 325 325 325 324 324 325 324 325
331 331 330 330 330 329 328 328 327 327 327 325 325 325 325 325 325 325 325 325 326 325 325 325 324 324 324 323 323 323 323 323 323 325 325 324 324 325 324 323 323 325 325
329 327 328 329 329 328 327 326 325 324 324 324 324 324 324 325 325 325 324 324 324 324 324 324 324 324 323 323 324 325 326 326 325 324 323 323 323 325 325 325 325 325 324
329 331 330 329 328 327 326 325 324 323 323 322 322 322 322 321 322 323 324 323 323 323 323 323 324 324 325 324 323 324 325 325 324 325 324 325 326 325 325 325 324 324 323
329 328 328 327 326 325 325 323 321 321 320 320 320 321 322 322 322 323 323 323 323 322 322 322 322 322 323 323 324 324 324 325 325 325 325 324 324 323 321 321 319 319 319
329 328 327 326 325 324 322 321 319 320 321 321 321 321 322 321 321 321 322 322 322 322 322 322 322 323 323 323 323 323 323 323 324 324 323 323 323 321 318 317 315 312 308
328 326 326 325 323 323 321 319 319 321 321 321 321 320 321 321 320 320 321 322 322 322 322 322 323 322 322 322 323 322 323 323 323 323 323 320 318 315 310 305 301 299 298

GFSGL_850_thetae_063.txt.gz
Theta_e
318 317 317 316 316 317 318 318 317 315 315 312 313 317 328 332 335 342 340 336 337 340 343 343 346 344 344 340 341 343 343 342 341 339 338 335 335 334 334 331 327 327 327
317 319 317 317 317 318 318 321 319 319 316 315 313 314 315 319 324 336 345 343 344 345 344 340 342 346 342 344 342 344 343 341 338 339 336 335 335 333 331 329 328 326 326
316 317 318 318 319 318 317 318 318 320 319 317 316 317 319 317 325 339 341 344 344 344 340 340 345 344 344 344 342 344 342 341 340 336 335 335 333 331 329 328 326 326 327
315 316 317 317 319 320 318 319 321 322 322 323 320 318 317 321 318 330 341 343 342 341 340 344 344 343 343 341 343 343 341 339 336 336 335 333 332 331 329 327 326 328 328
314 314 314 314 317 318 323 321 320 319 317 320 323 321 322 319 333 328 340 344 344 342 345 347 343 342 341 343 342 340 340 336 335 337 333 331 331 331 329 326 328 329 328
314 313 313 313 312 315 319 321 319 319 316 323 324 323 324 326 323 335 340 343 344 342 345 345 342 342 343 343 340 340 337 336 334 333 333 332 331 331 329 327 328 328 328
313 312 312 312 312 313 316 321 322 319 319 322 326 326 323 331 335 337 339 345 344 343 342 343 343 343 343 342 341 338 336 333 332 332 332 331 331 329 329 328 328 327 328
312 312 311 310 310 314 318 319 320 319 318 320 322 326 329 328 332 337 341 343 342 343 343 342 340 342 341 339 340 337 335 333 332 331 329 328 328 330 329 327 328 328 328
312 312 311 310 312 313 314 318 318 319 319 321 323 323 327 331 331 334 340 341 341 341 342 340 339 341 340 340 339 336 334 330 331 329 327 326 327 329 329 328 328 328 328
311 311 311 310 313 314 316 315 316 317 318 320 320 321 329 329 332 332 339 340 341 340 341 339 339 340 339 336 334 330 328 327 327 328 327 326 328 327 327 328 328 328 328
310 310 311 311 312 314 314 315 316 317 317 319 324 325 329 328 332 336 339 339 339 339 339 339 337 336 334 335 334 332 332 329 329 330 328 327 327 326 326 327 327 328 327
310 310 311 312 313 314 313 314 317 318 320 321 321 325 327 327 336 339 337 337 337 337 337 336 336 335 334 334 334 333 333 331 331 330 327 327 326 326 326 326 327 328 328
310 311 310 313 312 312 314 316 318 317 317 321 320 323 327 330 336 336 335 336 337 335 334 334 333 332 332 334 333 332 332 330 330 329 328 327 327 327 326 326 326 327 327
310 312 312 312 312 313 314 316 317 316 317 319 321 325 328 333 335 335 337 336 336 335 334 332 332 331 329 330 329 329 330 330 330 328 328 328 328 328 325 325 325 326 326
310 311 311 312 312 313 314 315 316 316 318 317 317 326 332 334 334 336 335 336 335 332 331 331 330 328 328 328 329 329 329 328 328 327 326 326 327 327 325 325 326 326 326
310 310 311 312 313 313 314 314 314 314 314 314 317 330 334 332 333 335 334 334 332 331 330 330 327 325 326 328 328 327 325 325 324 326 327 327 326 325 326 325 325 325 326
310 311 313 314 314 315 316 316 318 317 319 320 323 333 332 335 334 333 332 330 330 330 329 329 325 326 324 324 324 326 326 325 326 326 325 325 324 324 324 324 324 325 325
312 314 314 314 315 315 316 319 322 325 324 322 334 334 333 333 332 330 329 329 329 329 328 326 326 327 326 327 327 327 326 325 324 325 324 324 324 324 324 324 324 324 324
312 317 320 320 321 321 322 327 324 320 320 332 332 330 330 329 329 330 330 328 327 327 327 327 328 327 328 326 326 326 326 325 324 324 325 325 325 324 324 324 324 325 324
317 318 320 322 326 326 323 321 322 326 330 331 331 330 330 330 330 330 329 328 329 328 328 328 328 327 327 326 326 324 323 323 324 325 325 325 325 324 325 324 324 325 325
321 319 321 323 327 322 323 325 328 330 330 329 328 328 328 327 327 327 328 328 328 327 327 327 327 327 326 325 323 323 323 323 324 324 324 325 325 325 324 324 324 325 325
320 325 325 327 326 326 327 329 329 329 328 327 326 327 326 325 325 325 325 326 327 327 326 326 325 324 323 323 323 323 323 323 325 325 324 324 323 324 325 325 325 325 325
329 328 328 327 326 326 326 326 325 324 325 325 324 324 324 323 323 324 325 325 325 325 325 324 324 323 323 323 324 325 325 325 324 323 323 324 325 325 325 325 325 324 324
329 328 327 326 325 323 323 322 322 322 322 323 323 324 324 324 323 323 323 324 324 324 324 324 323 323 324 325 324 325 324 324 324 324 325 325 325 324 324 323 322 319 319
328 327 326 324 324 322 322 322 322 322 322 322 321 320 322 322 321 322 323 324 323 322 323 324 323 324 324 324 324 324 324 325 325 325 324 324 323 321 320 319 316 311 306
326 325 325 324 323 322 320 320 321 320 319 319 321 321 321 322 322 322 323 322 322 321 321 321 322 323 323 322 324 324 322 323 324 323 323 322 320 318 310 303 300 300 299

GFSGL_850_thetae_066.txt.gz
Theta_e
316 317 317 317 317 316 316 316 316 316 317 316 315 315 316 320 325 328 335 337 334 332 330 330 330 334 335 334 340 342 342 337 337 339 340 338 337 335 334 335 333 330 327
317 318 317 317 317 316 317 317 316 317 317 317 317 317 316 317 314 317 317 321 330 339 338 330 333 337 338 335 340 343 334 338 341 338 339 337 335 334 334 333 329 327 326
316 316 316 317 317 316 318 319 318 317 317 318 319 318 319 319 315 316 318 318 321 326 340 341 340 341 340 337 340 341 335 337 339 338 339 337 335 334 332 330 328 325 326
315 315 315 316 316 317 318 318 318 318 318 318 319 318 317 318 322 317 316 320 329 333 336 339 342 341 339 337 341 337 337 338 339 337 339 336 335 333 331 329 328 326 328
315 315 315 315 315 316 316 316 319 319 319 321 319 319 319 316 318 322 324 322 331 336 339 342 340 341 340 340 338 339 338 337 338 338 336 335 334 331 330 329 326 327 328
315 315 314 314 314 315 315 314 312 313 321 322 320 319 319 317 321 323 321 328 324 331 337 340 342 340 341 338 340 338 337 337 337 335 335 335 332 331 330 329 326 330 328
314 313 313 313 313 313 313 313 312 311 311 319 320 319 317 318 322 327 325 328 334 337 339 340 341 339 339 341 339 337 338 337 336 335 334 332 332 330 329 328 327 327 327
310 310 310 311 311 312 312 312 312 311 309 310 321 320 318 317 320 324 327 326 330 337 339 339 339 339 339 338 339 339 338 336 334 334 333 330 329 329 329 329 327 327 328
309 309 309 310 310 311 311 310 310 309 309 316 319 319 319 320 322 322 324 329 329 337 339 339 338 338 337 336 337 337 337 335 334 332 331 327 326 326 329 328 328 328 328
310 309 309 309 310 311 310 310 310 309 311 315 317 318 318 318 321 321 324 328 332 334 339 337 337 337 338 337 337 337 336 334 333 330 328 326 325 328 328 329 328 328 328
309 309 309 309 310 311 311 310 310 314 315 314 316 317 317 318 320 323 326 328 335 336 335 334 335 337 336 335 336 335 332 329 330 328 328 326 326 327 326 327 328 328 328
310 310 310 310 310 310 310 310 311 312 313 316 316 316 317 318 320 326 327 327 332 336 335 335 334 335 336 335 335 333 331 330 328 329 330 326 327 326 326 327 327 328 328
308 308 309 309 310 310 311 311 313 314 313 316 316 316 317 318 320 324 325 328 336 334 335 334 335 336 334 333 332 333 332 332 330 330 328 327 327 326 325 327 327 328 328
308 308 309 309 311 312 313 313 313 313 314 318 317 315 316 317 319 324 325 335 333 333 334 334 334 334 333 333 334 332 332 332 330 330 327 327 327 326 326 326 326 326 326
307 308 309 310 310 310 311 311 311 313 314 316 316 316 316 317 318 323 329 334 332 334 334 333 332 331 331 331 333 332 330 330 330 329 328 327 327 327 325 325 325 326 326
307 308 309 311 311 312 311 312 313 314 315 314 315 315 315 316 315 324 332 333 333 334 333 331 331 330 328 328 328 329 329 329 329 328 327 325 327 326 325 325 326 326 326
307 307 309 310 310 311 311 312 313 313 314 314 314 315 313 314 320 330 332 331 332 333 331 331 330 326 327 328 328 328 327 327 326 327 327 327 326 326 324 325 324 324 325
307 308 309 310 310 311 312 313 314 315 314 314 316 315 313 315 321 332 332 331 332 331 330 329 326 324 327 327 326 325 325 325 326 326 325 324 324 324 324 324 324 323 323
309 309 310 313 314 314 314 314 314 316 319 322 323 325 321 319 329 332 332 331 330 330 329 327 325 325 324 323 326 326 325 325 324 325 324 324 324 324 323 324 324 324 324
312 313 314 318 316 316 318 319 319 320 320 318 316 318 321 328 329 330 330 328 328 328 327 325 326 326 326 326 326 326 325 323 324 324 324 324 324 323 324 324 324 324 324
316 318 320 321 320 321 323 322 322 318 318 315 317 317 328 330 330 329 329 328 327 327 326 326 326 327 326 325 324 324 323 323 323 323 324 324 324 324 325 324 324 325 324
321 321 325 325 324 322 322 321 319 321 319 316 323 327 329 329 329 328 328 327 327 327 327 327 327 327 326 325 324 323 323 322 323 324 324 325 325 324 324 324 324 325 325
323 323 325 324 324 322 323 324 325 326 327 328 329 329 328 327 327 328 328 328 328 327 327 327 327 326 325 323 323 323 323 323 324 324 324 325 323 324 324 325 325 325 324
324 325 324 323 323 323 323 326 327 328 327 327 326 325 325 326 326 326 327 327 327 326 326 325 325 323 323 323 323 323 324 324 324 323 323 324 325 325 324 324 322 322 321
326 326 325 323 323 324 326 326 325 325 325 324 324 324 324 324 324 325 325 325 325 325 324 324 323 323 324 325 324 324 324 324 323 323 324 325 324 323 321 320 318 317 313
326 325 324 323 323 323 323 322 322 322 323 323 322 323 323 323 323 323 324 325 324 324 324 324 324 324 324 323 323 323 324 324 325 324 324 322 321 320 319 316 311 306 302

GFSGL_850_thetae_069.txt.gz
Theta_e
316 315 315 315 316 316 316 316 315 315 315 315 315 315 314 314 316 319 325 327 331 334 336 336 335 336 333 334 336 339 339 339 338 337 338 339 339 337 335 333 332 333 332
316 316 316 316 316 316 316 315 315 316 316 316 316 316 316 317 318 318 320 322 325 322 320 325 329 328 334 337 336 338 335 339 338 336 337 340 338 337 334 333 333 332 329
316 316 316 317 316 316 316 315 315 316 317 317 317 317 318 318 318 317 320 322 320 316 317 318 322 322 327 339 338 336 336 338 335 337 336 339 339 336 334 333 331 330 328
316 316 317 317 316 315 315 315 316 317 318 318 317 317 318 319 319 318 317 315 319 318 316 317 322 329 330 334 335 335 337 338 336 337 336 339 338 336 333 331 330 329 326
317 316 317 316 316 316 315 315 316 317 317 317 315 318 319 321 321 319 318 317 319 320 320 321 323 330 332 335 335 337 338 339 337 335 337 338 337 334 333 331 330 328 326
315 315 315 315 314 314 315 315 315 315 314 313 313 313 321 322 320 319 318 316 321 326 322 325 320 323 335 340 340 339 339 338 336 336 336 338 335 333 333 331 330 327 329
313 314 314 314 314 314 314 314 314 314 314 313 313 312 310 312 320 319 319 316 318 324 325 328 331 334 339 339 339 338 336 337 337 335 335 336 334 332 331 330 329 327 327
309 311 312 313 314 314 314 314 313 313 313 313 312 312 311 310 310 321 319 316 321 323 326 326 332 336 338 339 339 336 338 336 336 336 335 333 328 330 330 330 328 327 327
307 307 308 308 310 311 311 311 311 310 309 309 309 308 309 309 312 319 318 318 321 321 326 327 329 336 339 338 337 337 335 333 337 336 333 331 329 328 328 329 328 327 327
306 307 308 308 309 309 309 309 309 308 308 309 309 308 308 309 316 318 318 317 320 318 324 327 331 336 337 336 333 334 334 333 335 336 333 331 329 326 327 329 328 327 327
306 307 307 310 310 310 309 309 308 309 309 309 309 309 309 310 316 317 317 317 318 318 324 328 332 335 334 333 330 334 334 336 336 333 332 329 326 326 328 328 328 328 328
307 308 309 310 310 310 309 309 308 310 310 309 309 311 314 314 315 318 318 317 316 323 326 327 333 334 330 328 331 333 335 331 331 332 329 326 326 327 327 327 328 328 328
305 306 307 308 308 308 309 309 310 310 310 310 310 310 312 316 316 317 317 316 318 324 326 327 334 330 327 328 332 333 332 329 328 328 327 328 327 327 325 326 327 327 327
305 306 308 309 309 310 309 309 310 310 310 311 311 311 311 316 317 316 316 316 320 323 325 332 333 332 330 330 331 333 332 331 330 329 329 329 327 326 325 326 327 327 327
304 305 306 306 307 307 308 308 309 309 310 311 314 313 315 318 316 314 315 317 321 325 333 333 332 332 330 331 332 331 331 331 331 330 329 327 326 326 325 325 326 326 325
305 306 307 307 308 308 309 310 311 311 312 313 312 312 314 316 316 314 314 316 321 331 333 331 330 332 331 331 332 331 330 331 330 330 328 327 327 326 325 325 325 325 325
304 305 306 308 308 309 309 310 311 311 311 312 314 314 313 315 315 314 313 315 326 329 332 330 329 330 329 331 331 331 330 330 329 329 328 327 327 326 325 324 324 325 325
305 307 308 307 308 310 311 311 311 311 312 312 313 313 312 313 313 313 314 318 328 329 330 330 330 329 330 327 327 328 329 328 328 328 327 326 326 326 325 324 323 323 323
306 306 307 307 308 309 310 310 311 311 312 313 314 314 313 313 312 313 317 326 328 331 330 330 328 328 325 327 328 328 327 326 325 327 326 325 324 324 324 323 323 323 323
306 307 307 309 310 310 310 311 312 314 315 316 317 320 320 319 318 319 325 327 329 327 330 329 327 324 327 326 326 325 325 326 326 325 324 324 324 323 323 323 323 323 323
308 309 310 311 312 312 314 314 314 314 316 317 319 318 322 321 322 326 327 327 326 329 328 327 324 325 324 325 325 325 324 324 324 324 324 325 324 324 324 324 324 324 323
311 312 313 315 316 317 317 317 318 318 318 318 316 315 320 324 326 326 325 328 329 328 327 325 325 325 325 326 326 325 324 323 323 324 324 324 324 324 324 324 324 324 324
318 322 323 322 322 322 322 322 320 319 318 316 314 314 315 321 324 327 329 328 327 326 326 326 326 326 326 325 324 323 323 322 322 323 323 324 325 324 324 324 324 325 324
324 323 323 322 322 322 321 321 319 319 317 320 317 318 322 324 329 328 327 327 327 327 326 326 326 326 325 324 323 323 322 322 323 323 323 325 323 324 324 325 324 324 323
324 324 323 322 322 323 322 322 321 320 321 324 324 327 328 327 328 327 327 327 327 327 327 326 326 323 322 323 323 322 322 322 324 323 323 324 325 324 324 323 321 320 318
324 323 323 322 322 324 326 326 327 327 327 327 326 326 326 327 327 328 327 326 326 325 326 325 324 323 323 324 324 324 324 323 323 323 324 324 323 322 320 318 315 310 304

GFSGL_850_thetae_072.txt.gz
Theta_e
316 315 314 314 314 314 314 314 314 315 315 314 314 314 314 314 314 315 317 319 323 328 330 329 327 332 330 328 329 333 334 335 336 336 336 338 335 335 335 336 334 332 332
315 315 315 315 315 315 315 315 315 315 315 316 317 316 316 315 316 316 316 317 317 316 317 318 318 319 321 325 328 329 335 335 335 336 337 336 334 335 334 336 333 332 331
316 316 315 315 315 315 316 316 315 315 315 316 316 317 317 317 317 317 318 318 317 315 314 317 318 321 320 328 328 330 336 335 333 336 337 335 333 335 335 335 333 330 330
317 317 316 315 315 315 316 316 315 313 314 316 317 317 317 317 317 318 319 319 318 318 316 319 321 322 320 330 325 326 331 329 328 332 334 333 334 336 336 335 333 330 329
316 316 316 316 316 316 316 316 316 316 315 315 316 316 314 313 316 318 320 320 318 318 316 317 325 321 324 320 329 330 329 328 331 332 334 334 335 334 335 334 332 330 329
315 315 316 316 316 316 317 317 316 316 316 316 316 314 313 313 313 319 320 320 319 318 318 315 322 323 323 327 328 337 335 332 332 334 335 335 333 335 334 333 331 330 328
312 315 314 315 316 317 316 315 315 315 315 315 314 314 314 313 313 313 311 310 317 319 319 317 315 325 324 327 334 338 337 335 336 335 335 335 334 334 333 333 331 330 327
310 310 314 313 313 314 314 314 313 313 313 313 313 313 313 313 313 311 309 309 309 316 319 318 316 320 324 327 334 338 338 337 335 335 335 334 334 331 330 331 330 328 326
308 310 310 310 310 310 312 312 313 313 313 313 313 313 313 312 311 310 309 308 311 316 318 318 317 316 324 326 334 338 337 335 333 331 332 334 332 327 329 329 328 328 326
306 307 307 309 310 310 310 310 310 311 312 312 313 312 311 310 310 310 309 308 316 319 318 317 315 316 323 327 334 337 335 334 327 326 329 332 330 328 327 327 327 328 326
304 305 305 305 306 308 309 310 310 310 310 310 310 310 310 309 309 309 309 310 317 317 318 317 315 315 323 331 335 334 332 332 331 331 330 333 331 329 326 326 328 327 327
303 304 304 305 305 306 307 307 307 308 309 309 308 308 308 308 308 309 308 313 317 320 318 317 315 318 324 334 333 331 331 330 330 330 332 332 330 326 325 327 327 327 327
303 304 304 304 305 306 307 308 309 309 309 309 308 308 309 309 309 309 310 314 318 320 317 316 316 322 325 333 330 328 327 327 326 331 331 330 326 326 326 326 326 327 328
303 303 304 304 306 308 308 309 309 309 309 309 309 308 309 309 309 309 314 315 317 317 316 316 318 323 327 330 327 327 327 325 330 329 327 327 327 327 326 325 325 327 327
302 302 303 304 304 305 306 307 308 308 308 309 309 308 309 310 310 310 316 316 316 316 316 317 321 323 330 327 327 327 327 328 330 328 328 329 328 326 326 325 326 327 327
301 302 304 305 307 307 308 308 309 309 309 309 308 309 309 311 313 315 317 318 316 315 315 319 323 332 331 328 326 325 328 329 330 330 330 329 327 326 325 325 326 326 325
302 303 303 304 304 305 306 307 308 308 308 308 311 312 312 313 312 314 316 317 315 314 314 321 330 332 328 325 324 328 329 328 329 330 329 327 326 326 324 325 325 325 325
301 302 304 305 306 306 307 307 308 308 309 310 310 310 311 312 311 313 315 315 314 313 315 327 331 331 329 327 329 330 330 329 329 329 329 327 327 327 325 324 324 323 324
304 303 305 305 305 306 308 308 309 310 310 311 311 311 312 313 314 313 314 314 313 315 323 328 329 328 329 328 329 330 330 330 329 328 328 327 326 326 325 325 323 322 322
304 304 305 306 307 307 308 309 310 310 311 311 311 312 312 313 313 313 313 313 313 320 327 328 328 329 329 328 327 327 328 328 328 328 327 326 325 325 325 323 323 323 322
306 306 307 307 308 308 308 308 310 312 311 313 314 314 315 315 312 312 311 313 319 327 328 328 328 328 327 326 328 328 327 326 326 326 325 324 324 323 323 323 323 323 323
308 308 307 308 308 309 311 311 311 311 312 314 314 317 319 322 322 320 318 322 326 328 327 327 328 326 326 326 326 325 325 325 325 324 324 323 323 324 323 323 324 324 323
314 311 311 312 311 312 312 314 313 314 313 313 317 317 317 319 321 321 325 327 328 326 326 327 325 326 325 325 325 324 324 324 324 324 323 323 323 323 323 324 324 324 324
316 317 317 317 316 317 316 317 316 316 318 319 317 317 322 324 325 325 326 325 325 326 326 325 324 324 325 325 325 324 323 323 323 323 323 323 324 323 324 324 324 324 323
322 322 321 321 322 321 320 320 319 318 318 317 315 317 320 323 324 325 323 326 326 325 325 325 326 325 325 324 323 322 322 322 322 322 323 324 323 323 324 324 324 323 321
321 321 320 320 321 320 320 319 319 317 316 317 317 316 317 319 320 321 326 326 326 326 326 326 325 325 324 324 323 322 322 322 324 324 324 324 324 324 324 323 321 318 314

GFSGL_850_thetae_075.txt.gz
Theta_e
323 321 317 316 316 314 314 314 314 315 316 317 318 318 321 322 322 324 324 324 325 325 327 327 327 325 323 323 322 327 331 331 333 335 334 334 336 338 337 336 336 334 332
321 317 316 315 314 314 314 314 314 313 314 314 315 315 316 317 317 317 317 317 316 316 316 316 316 317 316 316 317 323 329 331 334 334 334 335 335 335 333 336 336 334 333
317 317 316 314 314 314 315 315 314 314 315 316 317 317 317 317 317 317 317 318 317 317 317 316 314 320 319 318 316 325 330 328 326 332 330 330 331 334 332 334 336 334 332
317 317 317 315 315 315 315 315 315 315 315 315 316 316 317 317 317 317 318 318 319 318 317 317 316 315 322 321 323 322 328 332 326 330 329 328 328 328 333 335 335 334 331
315 315 316 317 316 315 315 315 316 316 315 315 316 316 317 317 316 316 318 319 320 319 318 317 317 316 316 324 324 326 331 326 324 328 331 331 327 327 332 332 335 333 330
314 315 315 316 317 317 316 315 316 316 316 316 316 316 315 314 313 313 315 317 317 317 315 312 312 314 314 315 324 325 328 332 330 338 333 334 329 330 332 334 334 332 333
312 312 314 315 315 316 316 315 315 316 317 316 317 317 316 314 313 313 313 313 313 312 310 309 310 316 313 314 319 324 327 333 332 335 337 335 334 333 333 335 333 331 332
309 311 312 312 313 314 316 317 316 317 317 316 316 314 314 314 314 314 313 313 313 312 311 310 309 313 314 315 317 323 325 334 334 332 334 333 333 331 332 333 332 330 329
308 308 309 310 310 311 313 314 314 315 315 315 314 314 313 313 313 313 313 313 313 312 311 310 310 315 316 315 318 322 326 329 334 333 333 332 328 330 331 330 329 331 331
307 307 308 308 310 311 310 311 313 314 314 313 313 313 313 313 313 313 313 312 311 311 310 309 310 316 317 316 315 322 328 332 333 333 330 330 330 329 329 329 329 331 331
307 306 307 308 308 309 310 310 310 311 312 312 312 312 312 311 311 312 311 310 310 311 314 317 315 316 317 316 316 322 330 335 333 328 328 327 325 330 328 326 327 331 330
306 306 306 306 307 307 307 307 309 310 310 310 310 310 310 310 311 311 310 309 308 309 310 318 319 316 317 315 319 328 335 333 331 328 327 327 327 329 329 327 328 328 329
302 304 305 305 306 306 307 307 308 309 311 311 311 312 311 311 310 309 308 307 308 309 310 317 318 317 317 315 322 331 332 331 331 328 327 326 326 330 327 328 327 327 327
301 303 304 304 305 306 306 307 308 309 310 310 310 311 311 312 309 308 308 308 308 309 311 317 317 317 316 315 323 332 331 330 328 327 326 328 330 328 327 327 327 327 327
301 302 303 304 304 305 306 308 308 308 309 310 310 310 311 312 312 309 308 309 312 312 314 317 317 317 316 316 322 331 328 328 328 327 326 328 328 327 327 327 327 327 330
300 302 302 302 303 303 305 308 308 309 310 309 310 311 311 310 310 308 309 309 309 314 317 317 316 315 316 317 324 330 329 328 327 326 328 328 327 328 326 327 327 327 329
300 301 302 303 303 304 305 307 307 307 307 308 308 308 309 310 309 309 311 313 316 318 319 318 315 314 316 320 327 328 328 326 324 327 329 328 329 329 327 326 326 327 328
300 300 301 302 302 305 307 307 308 309 308 308 308 309 309 309 310 310 313 313 316 318 318 316 314 316 316 327 330 327 327 325 327 329 329 329 328 327 326 327 327 327 328
301 303 303 303 304 304 305 305 306 307 309 311 311 309 309 311 312 312 312 312 316 319 317 314 314 316 325 330 329 326 324 326 328 328 330 328 327 326 324 326 325 324 324
303 302 303 305 305 305 306 307 307 310 311 311 311 311 311 310 311 311 312 312 314 317 318 314 313 316 328 329 326 326 328 330 329 329 329 327 326 326 325 324 323 322 323
304 304 305 305 305 306 307 308 309 310 311 312 312 311 311 311 312 312 313 312 313 313 314 313 316 327 328 328 328 330 329 328 329 329 328 326 326 326 325 323 323 325 325
306 307 308 308 307 308 310 311 311 311 311 311 312 311 313 315 315 313 312 312 312 312 313 315 326 327 328 328 328 329 329 327 328 328 327 328 326 325 324 323 325 325 323
308 308 309 309 309 309 310 311 311 310 313 314 315 316 315 316 319 319 318 315 314 314 318 325 327 327 327 328 328 329 329 328 328 326 325 324 323 323 323 323 324 324 322
312 312 311 310 310 311 313 313 312 314 315 316 316 317 317 317 318 318 320 320 319 323 326 327 327 326 327 327 326 327 327 325 324 323 322 322 324 323 324 323 324 324 324
317 316 316 315 315 314 313 315 315 315 315 316 318 317 319 320 321 322 323 324 325 325 324 325 326 326 325 325 324 324 323 324 323 323 323 323 324 324 324 324 324 324 323
318 318 318 319 320 319 319 318 318 318 317 318 319 317 319 319 322 323 325 324 323 324 325 325 325 325 325 324 323 323 322 323 323 323 323 324 324 323 324 324 323 322 319

GFSGL_850_thetae_078.txt.gz
Theta_e
328 335 341 344 344 343 340 335 332 323 318 317 323 333 338 339 341 342 341 341 341 341 338 337 337 336 337 336 336 335 335 335 334 331 331 331 333 336 340 336 336 336 336
326 332 336 337 333 330 322 318 316 315 315 320 327 329 331 332 334 336 336 336 338 338 338 336 334 333 334 332 331 332 333 333 331 330 329 329 329 330 333 335 335 337 336
326 328 330 328 327 322 317 314 314 315 315 321 322 322 323 325 328 328 327 328 328 328 327 327 327 329 331 329 331 331 331 336 334 330 328 324 324 330 330 330 335 335 336
321 322 324 325 326 324 323 316 319 320 320 321 321 321 322 323 325 325 325 326 326 326 326 326 325 325 326 328 330 331 333 334 336 332 330 327 330 327 329 328 329 333 335
315 318 321 321 321 325 325 323 321 321 320 320 320 320 320 321 321 322 323 324 326 325 326 324 324 324 317 316 318 325 330 332 334 334 334 334 335 333 330 330 332 337 336
315 314 316 319 322 321 323 323 322 321 320 320 320 320 321 320 319 319 323 324 325 324 322 321 321 320 320 317 314 314 321 325 332 334 332 333 329 336 333 332 333 337 336
311 316 315 315 317 321 322 321 322 322 322 321 321 321 322 321 318 313 313 320 319 318 316 314 316 317 317 320 323 323 320 325 329 330 334 328 323 331 333 331 336 337 335
311 310 315 314 314 316 320 322 321 320 324 324 322 323 324 323 317 313 313 313 315 315 314 314 314 314 319 319 322 323 324 327 331 326 331 326 325 332 333 329 328 334 334
310 310 310 313 315 313 318 320 322 323 324 325 324 324 323 321 316 313 313 314 317 318 317 315 315 314 312 311 318 324 323 326 331 324 329 329 329 332 331 326 332 334 332
310 310 310 310 312 313 313 317 320 323 324 323 323 323 320 320 315 314 313 314 316 317 318 318 317 314 312 311 315 321 323 324 331 329 332 331 331 328 327 325 331 332 332
307 309 310 311 311 313 314 315 317 317 321 321 322 321 320 318 317 314 313 313 315 316 316 317 316 315 313 313 316 317 317 321 326 334 335 333 329 327 328 330 330 332 333
305 306 308 310 310 311 313 315 316 317 317 318 319 319 318 318 316 314 313 313 312 312 314 315 316 312 310 312 316 316 316 322 335 334 335 330 326 327 326 328 328 327 332
303 304 305 308 310 310 311 313 315 315 315 316 316 317 317 317 317 315 314 313 312 311 311 312 309 309 309 312 316 317 316 323 335 333 333 327 326 325 324 325 329 328 330
300 302 303 305 307 310 310 311 312 313 315 315 315 315 316 316 316 316 316 314 312 310 310 309 309 309 313 317 319 317 316 325 334 334 334 330 326 325 326 327 329 329 329
300 301 301 303 305 306 308 310 310 312 313 314 315 315 316 316 316 316 316 316 316 315 315 316 315 317 319 320 320 316 315 327 333 333 332 328 327 329 330 329 328 329 330
300 300 301 302 305 305 306 308 309 310 311 311 313 314 315 314 315 314 314 313 310 308 312 316 318 319 320 319 322 319 315 325 331 331 330 328 330 330 329 329 329 330 330
300 301 302 302 303 305 306 306 308 308 309 310 310 311 312 314 312 312 312 310 308 309 310 314 317 319 319 320 322 322 317 324 330 330 330 330 331 330 330 330 330 330 329
301 301 302 302 304 304 305 306 307 309 309 310 310 309 309 310 311 311 310 309 309 310 314 316 317 319 320 321 321 324 321 325 330 329 330 330 330 330 330 329 330 329 330
301 301 302 303 304 304 305 305 307 308 310 310 310 309 309 310 309 309 309 310 312 314 315 316 319 320 320 322 323 324 327 329 330 329 330 330 330 330 330 330 328 328 328
303 303 303 304 304 303 305 305 306 311 311 311 311 311 311 309 309 309 309 310 312 315 316 319 318 319 319 322 324 326 329 330 328 327 330 329 329 330 330 328 328 328 327
305 303 304 305 304 304 305 305 307 307 308 310 312 312 313 312 311 312 312 312 313 314 315 319 321 320 320 322 321 327 329 328 329 332 331 330 328 326 325 325 324 326 326
307 308 308 308 308 308 308 309 310 311 313 313 314 314 313 314 314 314 314 314 314 314 316 317 319 320 321 320 326 328 328 327 329 331 329 329 328 326 325 324 325 326 326
309 308 309 309 309 309 310 311 312 313 313 313 313 314 313 311 312 314 316 316 316 316 316 317 319 321 319 325 328 328 328 329 329 329 329 327 327 326 325 326 327 326 325
311 312 312 310 310 311 312 314 313 313 313 315 316 316 316 317 315 316 317 316 316 316 318 319 319 316 327 328 329 329 329 329 329 328 328 329 329 326 326 327 326 325 324
314 313 312 312 313 313 314 313 314 313 315 317 318 319 318 318 318 319 319 321 318 319 320 318 324 326 328 328 328 330 329 329 330 330 328 327 327 327 325 325 322 321 322
314 313 313 313 314 315 317 317 317 316 316 318 318 319 318 320 321 321 320 320 321 322 325 325 326 327 329 330 329 329 327 327 326 326 327 327 326 326 324 321 321 323 323

GFSGL_850_thetae_081.txt.gz
Theta_e
325 327 327 331 339 341 341 343 342 343 346 342 346 346 347 346 344 343 343 343 343 342 343 341 338 339 340 341 333 334 335 336 336 337 336 333 330 331 331 332 336 337 336
323 326 327 331 338 340 343 342 340 341 344 342 345 341 341 341 342 342 343 342 341 342 343 341 341 341 341 340 339 336 336 334 334 334 335 337 328 327 327 331 330 334 337
321 324 328 330 335 338 339 336 336 337 327 337 337 337 335 336 337 338 338 337 337 338 339 339 338 338 336 335 333 332 333 333 335 335 334 336 335 325 324 326 329 330 330
318 322 324 327 332 332 335 335 331 336 332 329 329 329 329 329 331 333 333 332 334 335 334 333 331 330 331 331 331 331 330 331 330 333 333 334 335 336 334 331 329 329 329
316 318 321 323 328 329 331 331 330 328 325 324 324 324 323 324 327 328 327 328 328 328 328 328 326 326 325 326 325 323 325 329 329 330 331 331 332 335 337 332 331 330 337
314 316 318 320 321 326 328 326 325 324 323 323 323 322 322 322 323 325 325 327 327 327 327 326 324 323 318 316 318 315 314 315 323 328 328 329 330 334 330 331 330 332 336
313 314 315 316 317 319 324 327 325 323 322 322 322 321 322 321 321 322 324 325 326 326 325 322 320 318 318 319 320 322 323 324 323 323 330 329 332 334 328 324 328 329 333
312 313 314 314 315 316 318 323 325 325 323 323 321 321 322 322 320 319 319 325 324 322 322 323 321 318 321 319 319 322 324 325 325 327 330 331 327 331 332 328 329 330 328
309 312 313 314 312 316 316 317 323 324 324 325 324 322 323 323 321 319 314 321 323 323 322 322 321 321 320 315 312 320 324 325 325 324 327 330 329 327 331 328 330 329 326
308 310 311 313 313 313 315 315 317 323 324 325 326 324 325 325 323 319 314 317 318 320 321 322 319 317 317 315 312 312 321 325 325 326 332 333 328 331 332 330 327 327 331
305 308 309 311 312 314 313 316 316 320 323 324 326 326 325 327 325 320 316 316 317 319 319 320 320 318 317 316 311 312 315 324 318 315 321 334 335 333 331 329 328 327 330
304 306 307 308 310 312 313 312 316 315 316 319 324 324 326 325 324 320 315 313 316 317 318 318 318 317 316 314 310 309 312 316 317 316 329 335 336 333 328 327 327 330 331
301 303 303 305 308 310 315 312 313 314 316 316 319 323 324 324 323 321 319 314 313 314 316 317 316 315 313 312 310 309 311 316 317 319 333 334 334 329 327 330 328 328 328
299 300 300 303 306 309 311 315 316 315 315 315 317 320 322 322 322 320 318 316 314 313 313 313 313 313 313 311 309 312 319 322 322 327 333 334 333 332 332 328 324 324 328
301 300 300 303 305 307 310 313 315 316 319 320 319 318 321 321 321 320 319 318 317 315 315 315 319 319 318 317 317 319 320 322 324 319 333 334 334 332 332 329 326 328 330
300 300 300 302 304 306 308 310 313 315 316 318 318 319 319 318 318 318 317 317 319 319 318 318 317 317 318 319 320 321 323 324 325 328 332 333 332 332 332 331 330 331 330
301 300 301 302 304 305 306 308 310 312 313 314 315 317 317 318 317 317 317 316 316 317 315 314 313 315 317 319 320 320 322 325 324 328 333 332 332 332 330 327 326 331 330
300 301 302 302 304 305 306 307 308 310 311 311 312 313 314 315 316 316 315 315 315 314 314 313 314 314 315 317 319 321 322 324 325 326 330 331 330 331 330 329 329 330 330
302 302 303 303 304 305 305 306 307 307 310 311 311 312 311 313 312 314 313 314 314 314 313 313 313 316 317 318 319 321 322 324 326 324 330 330 330 329 329 330 330 329 329
303 303 304 304 304 304 304 305 306 306 307 310 311 311 312 311 311 311 312 313 313 312 313 313 316 316 317 319 320 321 322 323 325 325 329 330 329 327 328 329 329 329 328
305 304 306 304 305 305 305 305 305 306 308 310 311 313 313 312 311 311 311 311 311 312 313 315 316 318 318 320 320 321 323 324 323 330 330 328 326 327 328 329 329 329 328
307 308 307 306 308 308 306 306 306 305 308 310 311 312 312 312 312 312 312 312 312 312 314 315 316 318 319 320 320 321 323 321 328 330 330 327 328 328 328 329 327 327 327
308 309 309 309 308 308 307 307 308 308 309 311 312 313 313 313 314 314 313 314 314 315 315 315 316 317 320 320 321 322 322 325 329 330 329 328 330 329 327 325 325 326 326
311 312 310 310 310 310 311 311 311 313 314 314 314 314 313 314 315 316 317 315 315 316 316 315 316 318 319 320 321 319 324 328 328 328 328 330 329 327 326 324 325 326 325
311 312 312 314 313 313 313 314 314 314 315 315 316 316 316 316 316 316 316 316 317 319 319 319 318 318 319 322 319 323 327 330 330 330 330 330 326 326 325 326 327 326 323
309 310 311 312 313 314 315 315 315 315 315 316 318 318 318 319 319 319 319 319 318 318 317 316 318 321 321 322 327 328 329 329 329 329 329 327 327 328 327 326 325 323 320

GFSGL_850_thetae_084.txt.gz
Theta_e
318 320 322 323 328 326 331 335 340 339 342 346 342 344 337 347 348 345 342 343 342 340 339 336 335 336 335 340 339 337 338 337 337 332 334 336 333 331 331 328 329 332 333
317 318 320 321 325 329 329 334 336 338 340 342 345 345 345 342 344 340 340 342 338 337 335 334 340 338 339 338 341 340 336 336 336 336 331 330 330 333 328 326 325 330 330
315 316 318 319 323 325 328 333 337 336 338 340 336 335 335 334 327 325 332 337 336 333 331 339 342 340 340 339 338 337 336 334 333 333 333 334 334 332 333 332 330 326 327
314 315 316 318 320 323 328 330 336 335 335 336 332 325 327 324 322 334 338 340 341 337 335 334 337 338 337 336 335 333 332 331 328 327 328 331 328 328 332 333 332 329 330
313 314 315 316 318 320 325 330 332 332 333 332 326 323 326 320 321 334 328 330 339 338 336 332 332 334 332 331 331 330 330 329 329 331 330 333 332 330 332 333 333 328 331
310 312 314 315 316 318 320 325 329 331 331 324 323 321 322 331 332 331 334 334 334 334 332 331 329 328 327 326 326 322 312 312 313 316 317 321 322 326 330 330 327 329 329
308 309 311 314 315 316 317 320 324 325 329 326 329 330 329 328 328 330 329 330 330 329 328 327 325 324 320 319 319 319 320 321 322 323 324 323 325 324 328 327 332 330 327
305 306 308 311 314 315 316 317 319 318 327 326 325 325 325 324 325 326 328 328 327 327 327 326 323 321 319 317 317 315 316 322 325 326 325 325 327 327 327 326 329 332 328
305 305 306 309 311 313 316 314 318 321 325 325 326 324 325 323 324 324 325 326 327 327 326 323 316 317 316 315 314 311 310 310 318 324 325 324 326 330 334 332 328 330 328
304 304 304 308 310 311 314 315 313 318 324 326 326 323 325 322 323 321 324 326 326 324 321 321 317 317 318 316 315 315 311 310 313 322 321 318 322 325 325 328 330 330 327
301 305 306 306 309 311 312 315 313 316 318 323 326 327 325 322 321 319 319 324 323 322 322 321 318 317 319 318 317 315 312 310 311 314 314 314 314 330 334 332 331 330 326
300 301 303 305 305 308 311 313 314 314 318 317 323 325 326 325 323 320 317 316 320 318 322 320 321 320 319 318 316 315 314 310 309 312 312 313 315 332 334 333 330 328 327
300 300 301 303 304 307 309 310 315 315 314 314 318 325 326 325 323 323 319 315 319 320 320 320 319 319 319 316 315 315 314 311 312 312 312 314 318 334 335 333 328 327 326
302 301 300 301 303 305 307 309 311 316 316 315 316 319 324 325 324 323 323 320 315 317 318 318 317 316 315 315 315 315 314 311 311 320 317 322 328 333 332 328 329 327 326
301 301 301 300 302 305 305 308 311 314 316 314 316 316 318 322 323 324 322 321 316 313 314 315 314 314 314 314 315 315 317 320 318 322 323 318 320 334 331 331 331 325 324
302 300 300 300 301 302 304 306 310 313 316 315 314 315 316 317 318 318 322 321 320 319 315 314 314 314 317 318 319 319 321 321 322 323 324 323 328 333 331 331 331 327 327
301 300 300 300 301 303 305 307 309 311 312 316 315 318 316 316 316 316 322 321 319 318 317 317 317 320 320 317 317 318 319 320 321 324 324 324 330 332 331 331 330 328 326
301 300 301 301 303 303 306 308 309 311 313 313 317 318 319 318 318 317 321 319 318 318 317 318 319 318 316 315 313 315 318 319 320 324 325 323 326 332 332 330 328 327 326
303 302 302 303 304 304 305 306 307 309 310 312 312 313 316 314 318 317 318 318 318 317 318 317 317 317 316 314 314 314 316 319 322 323 324 324 323 331 331 330 328 327 327
304 304 304 304 304 305 306 306 307 308 308 309 311 312 312 314 313 316 314 315 317 317 316 316 316 315 315 313 315 316 317 319 321 322 325 325 324 330 330 328 328 328 328
306 305 305 305 305 304 304 305 305 306 307 308 309 311 312 313 313 312 312 313 314 314 315 315 315 314 315 315 316 317 319 321 322 322 324 321 321 328 329 327 327 328 326
308 309 307 308 307 306 306 306 305 306 306 308 307 309 310 311 313 312 312 312 313 314 314 314 313 313 314 316 318 318 321 321 322 324 322 321 327 329 327 326 327 328 328
309 309 310 310 308 307 306 307 307 306 305 306 308 308 310 310 312 313 313 313 313 313 312 312 311 312 311 317 318 320 321 321 322 321 319 322 329 329 326 325 326 325 327
310 311 311 310 310 311 310 310 309 308 308 308 309 309 310 310 312 313 313 313 313 312 312 312 313 313 315 316 317 318 322 322 321 319 319 327 329 328 328 327 326 325 327
307 310 311 311 312 312 312 313 313 313 313 313 312 313 312 313 313 312 312 314 315 315 316 316 316 315 315 316 319 321 320 320 318 318 323 328 328 327 327 327 325 326 325
303 304 305 307 311 313 315 315 315 315 315 316 314 315 315 315 315 316 315 315 316 317 317 318 317 318 317 316 318 319 320 318 319 319 328 327 328 327 325 326 324 326 325

GFSGL_850_thetae_087.txt.gz
Theta_e
316 316 316 317 318 318 319 319 322 327 329 332 336 340 337 336 337 333 334 338 342 340 343 340 341 338 337 338 337 335 330 334 337 333 333 333 331 332 330 328 330 327 327
314 315 315 315 316 316 317 318 317 320 326 329 331 338 338 337 338 335 329 335 341 341 341 340 340 336 339 337 334 331 338 338 337 332 334 332 332 332 331 329 333 331 329
311 312 314 314 314 315 316 315 316 317 326 329 332 333 335 336 337 330 327 333 332 325 335 336 337 337 335 334 333 336 337 337 336 333 333 333 333 326 327 327 329 332 331
311 312 312 313 314 315 317 316 316 317 322 329 331 334 332 334 334 332 331 329 328 324 323 325 327 329 332 336 337 336 336 336 334 333 332 328 331 329 331 330 331 332 332
308 308 310 311 311 314 315 317 318 316 319 322 329 331 331 331 330 327 324 326 323 322 322 329 330 330 335 335 334 336 335 332 331 329 327 329 332 331 332 331 330 330 327
304 305 306 306 309 311 312 313 317 316 316 320 328 328 329 328 326 322 321 324 324 325 327 332 332 331 333 334 334 332 331 327 326 326 325 326 322 318 316 326 329 325 328
303 304 303 304 306 308 309 311 314 316 315 320 325 325 326 325 325 322 323 327 325 328 330 331 332 333 333 332 329 328 324 315 315 317 317 317 319 322 323 328 326 327 329
301 302 304 304 304 306 307 309 311 315 315 317 321 322 325 325 325 321 318 321 327 329 328 330 330 328 325 323 318 315 316 316 320 322 324 325 325 323 323 325 329 329 326
299 301 302 302 304 306 306 307 310 312 315 315 318 317 316 323 322 319 321 328 332 328 329 328 326 323 318 318 316 312 310 310 311 315 321 325 325 323 326 328 331 330 329
299 300 301 302 304 305 304 306 309 312 312 315 317 319 323 321 324 327 329 332 329 328 327 325 322 319 318 315 314 313 313 312 310 309 315 321 322 318 314 316 328 332 331
299 299 299 300 302 304 306 307 308 311 312 315 316 321 319 327 327 329 330 329 328 327 326 325 322 317 315 315 314 315 315 314 312 310 309 310 312 312 318 331 333 331 330
301 300 300 301 301 302 305 305 308 310 312 315 316 316 323 325 327 328 328 327 327 326 326 320 315 316 316 317 316 316 315 314 314 312 310 310 311 311 330 333 333 330 329
302 301 301 301 301 301 304 306 309 311 313 316 317 319 321 322 326 325 325 325 325 326 321 316 317 318 319 318 317 316 315 314 314 313 310 311 312 316 331 333 334 330 328
302 302 302 302 301 300 303 305 308 310 314 315 315 315 315 323 323 324 323 323 324 321 319 320 320 320 319 318 317 315 315 315 314 315 313 316 319 322 332 333 333 328 327
303 304 302 301 300 301 303 304 307 309 311 315 315 315 316 316 322 321 322 321 320 318 320 320 319 319 318 317 315 315 315 315 317 320 320 321 322 320 318 332 330 329 329
301 301 301 300 300 301 301 303 306 308 311 313 316 315 315 318 320 321 320 317 316 317 318 318 318 318 316 314 315 315 315 316 317 320 322 323 323 322 325 333 331 331 330
301 301 301 301 301 301 301 302 305 307 309 313 315 317 316 316 317 319 320 320 320 318 315 314 315 315 315 314 315 316 316 317 318 318 321 322 323 324 322 332 331 331 329
304 303 302 302 302 303 303 305 305 307 309 311 314 315 317 317 316 315 317 317 317 317 320 319 319 317 316 316 318 318 315 313 314 318 319 323 324 323 320 329 331 331 330
304 304 304 304 304 304 304 306 308 309 311 312 312 314 316 316 317 318 316 316 316 318 320 318 317 317 317 317 318 317 316 314 312 313 319 322 324 323 323 325 331 331 329
306 306 305 305 304 305 305 305 306 308 309 309 310 311 312 314 317 316 318 317 316 316 316 319 317 317 317 317 317 316 316 314 312 314 317 323 324 323 322 323 330 331 328
310 308 306 307 306 305 304 305 306 306 307 307 309 310 310 311 312 314 317 315 317 319 319 318 318 317 317 317 316 316 315 312 314 316 319 322 322 321 322 321 325 329 328
309 309 310 308 307 307 306 306 305 306 306 306 307 308 310 311 312 311 312 315 316 317 317 317 317 316 316 316 315 315 313 312 317 317 319 323 322 321 321 321 325 328 327
310 310 310 311 309 309 308 307 307 307 306 305 306 307 308 310 312 312 313 313 313 314 314 314 314 315 315 314 315 315 314 313 316 318 322 323 321 321 320 324 328 327 327
306 308 310 311 311 311 310 311 311 310 308 307 306 306 308 308 310 311 311 311 312 312 312 313 313 313 313 313 313 314 313 311 317 320 322 322 321 320 319 324 327 326 326
301 303 305 307 309 310 311 312 311 312 312 310 309 308 308 309 310 310 310 311 313 313 313 312 312 312 312 311 313 312 312 313 317 319 321 322 321 320 319 326 327 326 325
299 300 300 301 303 306 309 311 312 313 313 313 314 314 312 310 310 310 310 311 311 312 312 313 315 315 316 316 315 315 315 317 321 321 321 320 319 318 321 328 327 326 325

GFSGL_850_thetae_090.txt.gz
Theta_e
313 313 314 314 315 315 315 315 316 316 316 317 318 317 320 323 331 332 335 334 334 328 330 339 341 340 339 338 337 338 337 336 337 334 334 335 331 332 332 328 328 330 327
309 310 311 311 312 314 314 314 314 317 316 315 315 315 315 317 327 332 333 335 335 337 338 338 337 333 329 337 335 335 335 337 337 328 335 333 333 331 331 331 328 329 331
307 307 309 310 310 311 311 313 314 315 317 318 316 314 314 318 326 329 330 332 335 334 335 334 333 330 330 327 333 335 334 335 333 336 334 333 332 332 327 328 326 328 330
305 304 305 306 307 308 309 310 310 313 316 317 318 315 314 316 324 327 329 328 331 332 331 330 330 327 327 326 328 335 336 335 336 336 335 333 334 329 330 331 330 331 331
302 303 304 304 304 305 306 307 309 310 312 315 316 315 314 316 326 327 328 327 329 330 330 328 326 323 323 327 330 331 330 332 335 335 334 333 330 331 331 331 329 328 328
299 300 301 301 302 304 304 305 306 310 311 314 316 315 317 323 325 326 327 328 330 329 328 327 325 325 324 322 328 330 331 329 330 333 331 329 328 328 326 319 320 323 325
298 299 300 300 301 302 303 305 305 306 310 312 315 316 318 324 326 326 326 325 325 325 326 326 324 325 323 329 330 330 329 331 331 330 328 323 318 315 317 318 322 324 325
299 299 299 299 300 302 302 303 303 305 307 313 312 316 317 322 323 323 323 323 322 321 320 322 325 328 328 330 330 329 329 328 324 313 312 315 319 320 319 321 324 324 328
300 299 299 299 299 301 303 303 305 306 307 309 312 314 317 319 321 322 324 324 324 323 327 328 329 327 329 329 329 326 320 316 313 315 317 323 324 322 321 320 322 327 329
301 301 301 301 300 300 301 303 305 305 307 310 312 313 315 316 318 320 321 324 323 321 323 327 327 330 328 325 322 315 310 309 309 310 312 315 316 318 319 314 314 321 330
302 302 301 301 301 300 300 301 304 305 308 308 310 313 315 316 318 318 319 322 321 321 325 328 326 324 320 317 314 311 313 313 312 311 309 309 310 311 313 313 328 332 334
302 302 302 301 301 301 300 302 303 305 306 309 309 313 315 316 319 318 319 321 320 323 326 325 323 321 318 315 313 314 314 314 314 313 312 310 310 310 313 328 333 331 331
302 301 303 302 301 301 301 301 303 307 308 310 311 314 316 316 318 318 321 321 323 326 326 322 319 318 315 315 316 315 315 314 314 314 312 310 310 312 321 332 333 331 329
302 301 301 302 301 301 301 300 304 307 310 311 313 314 316 315 318 320 322 324 326 325 324 324 321 316 316 317 317 316 315 314 315 317 316 315 314 318 326 332 332 331 329
303 301 300 301 300 300 300 303 304 307 311 314 314 315 315 316 315 321 324 325 324 323 325 321 317 318 319 318 318 316 314 315 317 320 320 320 321 321 317 322 332 330 328
304 303 302 301 301 301 301 302 304 306 308 311 314 316 315 314 316 318 324 324 323 323 323 318 320 320 319 318 317 314 314 316 317 318 319 321 321 323 320 324 332 330 329
306 304 304 302 302 303 301 302 304 305 308 311 313 315 315 314 315 319 316 321 322 321 319 321 320 320 319 318 316 314 315 316 317 318 319 320 320 322 323 320 328 331 331
307 305 305 304 305 303 303 305 303 305 307 309 311 314 316 316 315 317 319 315 313 315 318 317 316 316 316 317 315 315 316 315 315 313 312 315 320 323 324 322 320 329 331
309 307 306 305 304 305 304 306 307 310 310 310 311 315 316 317 317 316 316 320 319 319 316 317 318 318 317 318 317 316 318 317 315 314 312 312 318 323 324 323 322 324 331
309 309 309 308 306 304 305 305 307 309 309 311 312 314 314 317 318 317 316 318 318 317 317 316 316 319 317 317 317 317 318 317 316 313 312 314 317 324 324 321 321 322 328
309 310 310 309 308 306 305 306 305 306 308 309 310 310 312 314 314 317 317 316 316 317 316 316 317 319 317 317 317 317 317 316 316 314 315 316 318 322 323 321 321 320 321
307 308 309 309 309 307 307 306 305 305 306 307 308 309 310 311 312 313 314 316 316 316 316 316 316 317 317 318 317 317 317 316 315 314 313 315 317 319 322 322 321 319 320
303 305 307 308 308 310 309 307 307 307 306 306 306 307 309 310 311 311 312 312 313 315 316 316 317 318 317 317 317 316 316 315 315 314 314 314 318 320 323 322 321 319 324
300 300 301 303 305 307 309 309 309 309 309 309 307 306 306 308 310 312 311 312 313 313 313 314 314 314 314 315 315 315 315 314 314 314 314 314 316 320 323 322 320 318 325
298 298 297 298 299 301 305 306 308 309 308 309 310 310 307 306 306 308 311 312 311 311 311 311 311 312 313 313 313 313 312 311 311 311 311 311 317 321 323 321 321 319 321
294 296 296 296 295 297 298 300 303 306 308 308 308 310 310 310 309 308 308 309 310 311 310 311 313 312 312 311 311 312 312 313 314 313 313 316 319 320 320 320 320 319 323

GFSGL_850_thetae_093.txt.gz
Theta_e
311 310 310 311 311 311 311 312 313 314 315 316 318 318 316 315 315 316 316 318 324 328 333 335 333 332 330 328 330 333 338 337 334 334 334 335 334 333 332 333 331 328 326
310 310 310 310 310 309 309 308 310 311 312 314 316 318 317 316 315 314 314 315 318 326 327 334 335 332 331 334 337 336 336 337 336 334 334 335 334 334 332 331 331 330 328
307 306 305 305 304 305 305 306 307 307 309 311 312 317 319 318 317 315 314 313 317 320 326 330 334 332 331 332 334 331 328 328 331 332 334 334 333 333 332 330 326 323 326
302 301 301 301 302 303 303 303 305 305 306 308 309 311 317 317 315 314 314 311 314 320 323 327 332 333 332 332 331 331 328 327 328 330 333 333 332 333 332 327 329 328 327
300 300 300 301 301 301 301 301 302 303 304 305 306 308 311 315 315 314 313 311 315 323 325 326 329 333 332 332 330 330 329 327 327 330 331 333 333 333 332 328 328 329 330
304 303 302 300 300 300 300 301 302 302 302 303 305 306 311 312 315 314 314 314 323 325 327 326 327 331 332 330 327 325 325 327 326 326 329 331 331 333 329 329 328 325 323
303 303 303 302 301 300 300 300 301 304 304 304 304 306 310 311 315 314 317 322 327 326 326 326 330 331 330 328 324 327 328 329 329 326 327 328 331 329 328 327 324 320 317
303 302 302 301 301 301 301 300 301 303 303 303 304 306 309 311 314 316 317 322 325 328 327 326 329 328 327 324 325 325 326 325 327 329 328 330 329 325 320 316 316 320 322
302 302 302 301 301 301 300 300 300 301 303 304 306 307 310 312 313 315 319 322 322 325 323 324 326 327 327 326 325 329 329 329 328 327 323 318 315 314 314 314 316 319 320
302 302 301 301 302 301 301 300 300 300 302 304 305 309 311 313 315 315 318 321 323 324 324 322 323 324 325 326 327 328 327 324 319 316 314 315 319 320 319 319 317 318 319
303 302 301 301 302 302 301 300 300 300 301 304 307 309 311 311 314 316 316 321 320 320 324 323 326 326 326 325 324 325 325 318 314 312 312 315 316 318 320 318 314 313 319
304 303 301 301 302 302 301 300 300 300 302 304 307 309 309 310 315 315 317 318 318 319 322 323 324 324 326 325 321 314 310 310 310 310 309 309 310 311 312 313 315 329 331
304 304 302 300 301 301 301 301 301 302 303 306 307 309 310 312 316 316 318 319 318 321 321 322 324 325 322 317 312 313 313 313 313 313 313 311 310 310 312 321 332 331 332
306 304 303 302 300 300 301 301 301 303 304 308 309 309 312 315 316 316 317 318 319 321 321 323 322 319 317 314 315 315 314 314 315 316 313 313 315 319 325 330 330 331 329
305 305 304 303 302 301 301 301 302 304 305 309 313 314 315 315 316 316 317 320 321 321 322 322 319 316 314 314 316 315 314 316 318 319 319 319 319 319 320 326 331 330 329
307 305 305 304 304 303 302 302 303 304 306 308 310 315 315 315 314 316 321 322 321 320 322 320 318 316 316 317 316 314 315 317 317 319 320 321 321 323 319 322 330 331 328
307 307 306 305 305 305 304 303 303 304 306 308 311 315 315 313 315 318 322 322 318 321 321 320 317 316 317 317 316 314 315 316 317 317 318 319 320 322 323 321 327 329 330
308 308 307 307 305 305 305 306 304 305 307 309 313 315 316 315 316 315 322 320 321 322 320 319 317 319 318 317 314 314 315 315 315 314 312 313 318 321 323 323 321 324 330
308 308 308 307 306 304 306 306 309 310 310 310 311 315 316 316 315 315 315 316 321 321 320 319 319 318 317 316 314 315 315 316 315 314 312 312 313 320 322 323 322 321 325
307 308 308 308 306 306 305 305 306 308 309 310 313 314 316 317 316 315 316 319 317 316 317 318 318 317 316 316 317 316 316 318 317 315 313 313 314 319 322 323 322 321 321
303 305 307 307 307 307 306 306 305 306 307 308 309 311 312 316 316 316 316 317 319 319 317 317 317 316 318 317 316 316 317 317 317 316 313 316 317 319 322 323 323 321 319
298 300 303 304 305 306 306 307 306 305 305 306 307 310 310 311 314 316 317 316 317 318 317 317 316 316 316 318 317 317 317 317 317 316 314 313 316 317 318 320 322 322 320
296 297 299 301 302 303 305 305 305 306 307 306 306 306 308 309 310 312 314 316 316 316 316 316 317 316 316 319 317 317 317 317 317 316 315 315 314 315 317 320 322 322 321
294 295 295 296 298 300 302 303 304 304 304 307 307 307 306 306 307 308 311 312 314 315 316 316 316 316 316 316 316 317 317 317 316 315 315 314 314 314 312 318 322 323 319
291 292 293 293 293 295 298 299 301 303 305 304 306 308 309 308 306 306 308 310 311 312 312 314 316 316 315 315 315 316 316 315 315 314 314 314 312 311 310 320 323 321 320
289 290 290 290 291 290 292 294 296 297 299 302 304 305 306 307 310 310 307 306 308 311 311 312 312 312 312 312 312 313 313 313 312 313 312 311 312 311 316 322 322 321 320